GEFSNGP_500_meanwind_096.txt.gz
Wind_Speed
27 28 30 29 29 30 31 30 30 28 27 25 27 29 30 30 30 30 31 32 34 35 36 37 39 41 42 44 45 47 48 49 50 51 52 53 54 54 56 57 58 58 59 60
29 28 30 30 30 30 31 30 30 30 27 25 30 31 31 31 32 32 34 35 36 37 38 40 41 43 44 45 47 48 49 50 51 52 53 53 54 56 56 57 58 60 61 62
30 29 31 32 29 29 30 30 30 30 27 28 30 31 32 33 33 35 36 37 38 39 40 42 43 44 46 47 49 49 50 51 52 53 53 54 56 56 57 58 59 61 61 63
32 32 35 28 26 28 29 29 29 29 28 29 31 32 33 34 35 36 37 38 39 40 42 43 44 46 47 49 50 51 51 52 53 53 54 55 56 57 58 60 61 61 63 64
33 34 34 31 28 28 29 28 28 30 30 32 33 33 34 35 36 37 38 40 41 42 43 45 46 47 48 49 50 51 52 52 53 54 55 56 57 58 59 61 62 63 65 67
34 34 33 29 28 30 31 29 27 30 32 33 34 35 35 36 37 39 40 41 42 44 45 46 47 48 49 50 50 51 51 52 53 54 56 57 58 59 61 62 63 65 67 69
33 34 32 29 29 30 31 28 28 31 33 34 35 36 36 37 39 40 41 43 44 44 45 46 47 48 48 49 50 50 51 52 54 55 57 58 59 60 62 64 66 67 69 72
34 35 30 28 30 31 30 31 32 33 34 35 36 36 37 38 40 41 42 43 44 45 45 46 46 47 48 49 50 51 52 53 54 56 57 59 60 62 64 66 68 70 73 75
33 32 31 32 32 32 32 33 34 35 36 36 37 37 38 39 40 41 42 43 43 44 45 45 46 47 48 49 50 51 53 54 55 57 58 60 62 64 66 69 72 74 77 79
34 33 33 33 33 34 34 35 36 36 37 37 38 38 39 39 40 41 41 42 43 43 44 45 46 48 49 50 51 52 53 55 56 58 60 62 64 67 70 73 76 78 81 82
34 33 33 34 34 35 36 37 37 37 38 38 39 39 40 40 41 41 42 43 43 44 45 47 48 49 50 51 52 53 55 56 58 60 62 65 67 70 73 76 80 82 84 84
32 32 34 34 35 36 37 37 38 38 38 39 39 40 41 41 42 42 43 44 45 46 46 47 48 49 51 52 53 55 56 58 61 63 66 68 71 73 76 79 82 84 84 84
33 33 34 35 36 37 38 38 38 39 39 40 40 41 42 42 43 43 44 45 45 46 46 48 49 50 52 53 55 57 59 61 64 67 70 72 75 78 79 80 82 83 82 81
34 34 35 35 36 37 37 38 38 39 39 40 41 42 42 43 43 44 45 45 45 46 47 48 50 51 53 55 57 60 62 65 68 70 74 76 79 81 83 83 82 79 78 76
35 36 36 36 36 37 37 37 38 38 39 40 41 42 42 43 43 43 44 44 45 46 48 49 51 53 55 58 60 63 66 68 71 74 77 79 81 83 84 83 82 79 74 69
35 35 35 35 35 36 36 37 38 39 40 40 41 41 41 41 42 42 43 45 46 48 49 51 53 55 58 61 64 66 69 72 76 78 80 81 83 83 83 81 79 74 69 64
34 34 34 34 35 35 36 37 37 38 38 38 39 39 40 40 41 43 44 46 47 49 51 54 56 58 61 65 67 70 73 76 78 80 81 83 83 83 81 78 74 69 63 59
34 34 34 35 35 35 35 35 36 36 37 37 38 38 40 41 42 43 45 47 49 51 54 57 59 62 65 68 71 74 76 78 79 81 82 83 82 80 77 73 69 64 59 55
33 33 34 34 34 33 34 34 35 35 36 36 37 39 40 41 43 45 47 49 51 54 56 59 62 65 68 71 74 76 78 80 81 82 82 81 79 76 72 67 63 59 56 51
32 32 32 32 32 33 33 34 35 35 36 37 38 40 41 43 45 47 49 52 54 57 60 62 65 69 72 75 77 79 80 81 82 81 80 77 73 69 65 61 57 54 50 47
31 31 31 32 32 33 34 34 35 36 37 39 40 42 44 45 48 50 52 54 57 60 63 66 69 73 75 77 79 81 81 81 80 78 75 71 67 63 59 55 52 49 45 42
31 32 32 33 33 34 35 36 37 38 40 41 43 44 46 48 50 52 55 58 61 64 67 70 73 76 78 79 80 80 79 78 76 73 69 65 61 57 53 50 47 44 41 38
33 33 34 34 35 36 37 38 39 40 42 43 45 46 48 50 53 55 58 61 64 67 70 73 76 78 80 80 79 77 75 73 70 67 63 59 56 53 50 47 44 41 38 35
34 34 35 36 37 37 38 39 41 42 43 45 47 49 51 53 56 59 62 65 68 71 73 76 78 79 79 78 75 73 70 67 64 60 57 54 52 49 47 44 41 38 35 32
34 35 36 36 37 38 39 41 42 43 45 47 49 52 54 57 60 63 65 68 71 74 76 77 78 78 76 73 70 67 64 61 58 55 52 50 48 45 43 40 37 34 31 29
34 35 36 37 38 40 41 42 43 45 47 49 52 55 58 61 63 66 69 72 74 76 77 77 76 73 69 66 63 61 59 56 53 51 50 48 45 42 39 36 33 30 28 27
35 36 37 38 39 40 42 44 46 48 50 53 55 58 61 64 67 70 72 74 76 76 76 73 70 66 63 60 58 57 55 52 50 48 46 43 40 37 34 31 28 26 25 24

GEFSNGP_500_meanwind_102.txt.gz
Wind_Speed
32 31 31 32 31 32 33 33 34 31 30 26 27 30 32 32 32 32 32 32 33 33 34 35 37 38 39 40 41 42 43 45 46 47 48 49 51 52 53 54 54 55 56 56
32 31 31 32 32 32 32 32 32 31 28 25 29 32 32 32 32 32 33 33 34 34 35 36 37 38 39 40 41 43 45 46 47 48 49 50 51 52 53 54 55 56 56 57
32 31 33 33 29 30 30 30 30 30 27 27 31 32 32 33 33 34 35 35 35 35 36 37 38 39 40 41 43 44 46 47 48 49 50 51 52 53 54 55 55 56 57 58
33 33 35 29 27 28 29 29 29 29 28 30 32 32 32 33 34 34 34 34 35 36 37 38 39 40 41 43 44 45 46 47 49 50 51 52 53 54 54 55 56 56 58 59
35 35 34 29 26 25 28 27 27 29 29 30 31 31 31 32 33 33 34 34 35 36 38 39 40 41 42 43 45 46 47 48 50 51 52 52 53 54 54 55 56 58 59 61
36 35 33 27 25 26 29 28 25 29 29 30 31 31 31 31 32 33 34 36 37 38 39 39 40 42 43 44 45 47 48 49 50 51 52 52 53 54 55 57 58 60 61 63
35 34 32 28 26 27 28 25 26 28 29 30 30 31 31 31 32 34 35 36 37 38 39 40 42 43 44 45 46 47 48 49 50 51 52 53 54 55 57 59 60 62 64 65
35 35 31 28 28 28 27 28 29 29 29 30 30 31 32 33 34 35 36 37 38 39 40 41 43 44 45 46 47 47 48 49 50 51 53 54 55 57 59 61 63 64 66 67
35 33 30 30 31 30 30 30 30 31 31 31 32 33 33 34 35 36 37 38 39 40 42 43 44 45 46 46 47 47 48 50 51 52 54 55 57 59 61 63 65 67 69 71
36 34 33 32 32 32 32 32 31 31 32 32 33 34 35 35 36 37 38 39 40 41 42 43 44 45 46 46 47 48 49 50 52 53 55 57 59 61 63 65 68 70 72 75
36 34 34 34 33 33 34 34 33 33 34 34 34 35 36 36 37 38 39 39 40 41 43 43 44 44 45 46 47 48 50 52 53 55 57 59 61 63 66 68 71 74 76 78
36 35 36 36 35 35 35 35 35 35 35 35 35 36 36 37 38 38 39 40 41 42 43 43 44 45 46 47 48 49 51 53 55 57 59 61 63 65 68 70 73 76 79 81
36 36 37 36 35 35 35 35 36 36 36 36 36 37 37 37 38 39 40 41 42 42 43 44 45 46 46 47 49 51 53 55 57 59 61 64 66 69 70 72 75 77 79 82
37 37 37 36 36 36 36 36 36 36 36 36 37 37 38 38 39 40 40 41 41 42 42 43 44 46 47 49 51 53 55 57 59 62 64 67 69 72 74 76 76 77 79 83
37 37 37 36 36 36 36 35 35 35 36 36 37 37 37 38 38 39 39 40 40 41 43 44 46 47 49 51 53 55 57 60 62 65 67 70 72 74 76 78 79 81 81 80
37 37 37 36 36 35 35 35 35 36 36 36 36 37 37 37 38 38 39 40 41 43 44 46 48 50 52 54 55 58 60 63 65 68 70 72 74 76 78 80 82 82 80 77
36 36 36 36 36 36 36 36 36 35 35 35 36 36 37 37 38 39 40 41 43 45 46 48 50 52 54 56 58 61 63 65 68 70 72 74 76 78 80 82 82 80 76 72
35 35 35 35 35 35 35 35 35 35 35 35 36 36 37 38 39 40 41 43 45 47 49 50 52 54 57 59 61 63 66 68 69 72 74 76 78 80 82 81 79 75 70 67
34 34 34 34 33 33 33 33 34 34 35 35 36 36 37 39 40 42 43 45 47 49 51 53 55 57 59 61 63 65 67 69 72 74 76 78 79 81 80 77 74 70 66 63
33 33 32 32 32 32 32 33 34 34 35 36 37 38 39 41 42 44 45 47 49 51 53 55 57 59 61 63 65 67 70 72 75 77 78 79 79 78 75 72 69 65 62 61
32 32 32 32 32 33 33 34 34 35 36 37 38 39 41 42 44 46 47 49 52 54 55 57 59 60 62 65 68 70 73 75 77 78 79 78 76 74 70 67 64 62 60 58
32 32 32 32 33 33 34 35 35 36 37 38 40 41 43 44 46 48 50 52 54 55 57 58 60 63 65 68 71 74 75 77 78 78 77 74 72 68 65 63 61 59 56 54
32 32 32 33 33 34 35 36 37 38 39 40 41 43 45 47 48 50 51 53 55 56 58 60 63 66 69 72 74 76 77 78 76 74 71 69 66 63 62 60 57 54 51 48
31 32 33 34 35 36 36 37 38 39 40 42 43 45 46 48 49 51 52 54 56 58 60 63 66 69 71 74 76 76 76 74 71 68 66 63 61 60 58 56 52 49 46 43
31 32 33 34 35 36 37 38 39 40 41 43 44 46 47 48 49 51 53 55 57 59 62 65 68 71 73 75 75 74 71 68 66 64 61 59 57 56 54 51 47 44 41 38
32 33 33 34 35 36 37 38 39 40 42 43 44 46 47 48 50 52 54 57 60 62 65 67 70 73 74 74 72 69 66 64 62 60 58 56 54 52 49 46 42 39 36 34
32 33 34 35 36 36 37 38 39 41 42 43 44 46 48 50 52 55 57 60 63 65 68 70 72 73 71 69 67 65 62 61 59 56 54 52 50 47 44 41 38 35 33 31

GEFSNGP_500_meanwind_108.txt.gz
Wind_Speed
40 40 38 37 36 37 37 36 35 32 31 28 29 30 30 30 30 29 29 29 29 30 30 30 31 32 33 34 35 36 37 37 37 39 39 41 42 43 44 45 47 48 49 51
39 39 38 38 37 36 35 34 33 33 30 27 30 31 30 29 28 28 28 28 29 29 30 30 31 32 33 34 35 36 36 37 38 39 40 41 42 44 45 47 48 49 50 51
39 38 39 40 35 34 33 32 32 31 27 28 30 30 29 29 28 27 27 28 29 29 30 31 32 32 33 34 35 35 36 37 38 40 41 42 44 45 46 48 49 50 51 52
39 39 41 35 32 32 32 31 31 29 28 28 28 29 29 28 27 27 27 28 29 30 31 32 32 32 33 34 35 36 37 38 39 40 42 43 45 46 48 49 50 50 51 52
41 40 39 34 30 30 31 30 30 29 28 28 29 28 27 27 27 27 28 28 29 30 31 32 32 33 34 35 35 37 37 38 39 41 43 44 46 47 48 49 49 51 52 53
41 40 38 33 31 31 32 30 28 29 28 28 29 28 26 27 27 28 28 28 29 30 30 31 32 33 34 35 36 37 38 39 41 42 44 45 46 47 48 49 50 51 53 55
41 40 38 34 32 32 32 28 28 29 28 28 27 26 27 28 28 28 28 28 29 29 30 31 32 34 35 36 37 38 39 40 42 43 44 45 46 47 48 50 51 53 55 57
40 40 36 33 32 31 29 29 29 28 28 27 27 27 27 27 28 28 28 29 29 30 31 32 33 35 35 36 37 39 40 41 42 44 44 45 46 47 49 51 53 55 57 60
38 35 32 31 30 29 30 29 28 28 27 27 27 27 27 27 28 28 29 29 30 31 32 33 34 35 36 37 38 39 41 42 43 43 44 45 47 48 50 53 55 57 60 62
38 35 33 31 30 30 29 29 28 27 28 28 28 28 28 29 29 29 30 30 31 32 33 34 35 35 36 37 39 40 41 41 42 43 45 46 48 50 52 55 57 60 62 64
37 35 34 33 31 30 30 30 29 29 29 29 29 29 29 30 30 30 31 31 32 33 34 34 35 36 37 38 39 40 40 41 43 44 46 48 49 52 54 57 60 63 65 67
36 34 34 32 31 31 31 30 30 30 30 30 30 30 30 30 31 31 32 32 33 34 34 35 36 37 37 38 39 40 41 43 44 46 47 49 52 54 57 60 62 65 67 69
35 35 35 34 33 32 31 31 31 30 30 30 31 31 31 31 32 32 33 33 33 34 35 36 36 37 38 38 39 41 43 44 46 48 50 52 55 58 60 62 64 67 69 70
37 36 36 34 33 33 32 32 31 31 31 31 31 32 32 32 32 33 33 33 34 35 35 36 37 38 38 39 41 43 44 46 48 51 53 56 58 61 63 65 66 68 70 71
37 36 35 35 34 33 33 32 32 31 31 31 31 32 32 33 33 33 33 34 34 35 36 37 38 39 39 41 43 45 47 49 51 53 56 59 61 63 65 67 69 70 71 72
36 36 35 34 34 33 33 32 32 32 31 31 31 32 32 32 32 33 33 34 35 36 37 38 39 40 41 43 45 47 49 51 53 56 58 60 63 65 67 69 71 71 72 73
35 34 34 33 33 33 33 32 32 32 31 31 31 31 31 32 32 33 34 35 36 37 38 39 40 41 43 45 47 49 51 53 56 58 60 62 65 67 69 71 72 72 73 73
34 33 33 33 33 33 32 32 32 31 31 31 31 31 32 32 32 33 34 35 36 37 38 40 42 44 45 47 49 51 53 55 58 60 62 65 67 69 71 72 73 73 73 71
32 32 32 32 33 32 32 31 31 31 31 31 31 31 32 32 33 34 35 36 37 38 40 42 44 45 47 49 51 53 55 57 59 62 64 67 69 71 72 73 73 73 71 68
31 31 31 31 31 31 31 30 30 31 31 31 31 32 32 33 34 35 36 37 39 40 42 44 45 47 49 51 53 55 57 59 62 64 67 70 71 72 73 73 72 70 67 65
30 30 30 30 30 30 30 30 30 31 31 31 32 32 33 34 35 36 37 39 41 42 44 46 47 49 51 53 55 57 59 61 64 67 70 72 72 72 72 72 69 67 64 61
29 29 29 29 29 29 30 30 31 31 31 32 33 33 34 35 36 38 39 41 43 44 46 47 49 51 53 55 56 59 61 65 68 70 71 71 71 71 71 69 66 62 59 57
29 29 29 29 29 29 30 31 31 32 32 33 34 35 36 37 38 40 41 43 45 46 47 49 50 52 54 56 59 62 65 68 70 71 71 70 70 70 68 64 61 57 55 53
28 28 29 29 29 30 30 31 32 33 34 34 35 36 37 39 40 42 43 45 46 47 48 50 52 54 57 59 62 65 68 69 70 70 69 69 69 67 63 59 56 53 51 49
28 28 29 29 30 31 31 32 33 34 35 36 36 38 39 40 41 43 44 45 46 48 50 52 54 57 59 62 65 67 68 69 69 68 67 66 65 62 58 54 51 49 47 45
29 29 30 31 31 32 33 33 34 35 36 37 38 38 40 41 42 43 44 46 47 50 52 54 56 59 62 64 66 67 67 67 66 65 64 62 59 56 53 50 47 45 43 41
29 30 30 31 32 32 33 34 35 35 36 37 38 39 40 42 43 44 45 47 49 51 53 56 58 61 63 65 65 65 64 63 63 62 60 57 54 51 48 46 43 41 39 37

GEFSNGP_500_meanwind_114.txt.gz
Wind_Speed
48 47 46 45 44 45 45 44 43 39 38 36 35 35 34 33 31 30 30 30 29 29 30 30 30 31 31 31 32 32 33 33 34 35 36 36 36 38 39 41 42 44 44 45
48 46 46 48 46 45 44 43 42 40 38 35 36 36 35 33 32 30 29 29 29 28 28 29 29 30 30 31 31 32 32 32 33 34 35 36 37 38 40 42 43 44 44 45
47 46 47 49 45 43 42 41 41 40 35 35 36 35 34 33 32 30 29 28 28 27 27 28 29 29 30 30 30 31 31 32 33 34 35 37 38 40 41 42 43 44 45 47
46 46 50 44 41 42 41 39 38 37 36 36 36 35 34 33 32 30 29 28 27 27 27 28 28 29 29 30 30 31 32 33 34 35 36 38 39 41 42 43 44 45 46 48
48 48 46 43 40 39 39 38 36 36 36 36 35 35 33 32 31 30 29 28 27 27 28 28 28 29 29 30 31 31 32 33 34 36 37 39 40 41 42 43 45 46 47 48
47 46 45 40 38 36 37 37 34 34 34 34 34 34 30 30 30 29 28 28 28 27 27 28 28 29 29 30 31 31 32 33 35 36 38 39 40 41 42 44 45 46 47 49
44 44 42 39 37 36 37 32 29 31 32 32 32 30 29 29 29 28 28 28 28 27 27 27 28 28 29 30 30 31 33 34 35 37 38 39 40 41 43 44 46 47 48 50
44 43 41 37 35 34 32 31 30 29 30 30 30 29 29 28 27 27 27 27 27 27 27 28 28 29 29 30 31 33 34 35 36 37 38 40 41 42 43 45 46 47 49 51
41 38 36 34 33 33 33 31 30 29 29 29 29 29 28 28 27 27 27 27 27 27 28 28 29 30 30 31 33 33 34 35 36 37 38 39 40 42 44 45 47 48 50 51
39 38 36 34 32 32 31 30 29 29 29 28 28 28 28 28 27 27 27 27 28 28 29 30 30 30 31 32 33 34 34 35 36 38 39 40 41 43 44 46 47 49 51 53
38 35 35 34 32 31 30 29 29 28 28 28 28 28 28 28 28 27 27 28 28 29 29 30 30 31 32 33 34 34 35 36 38 39 40 41 42 44 45 47 49 51 52 55
37 33 33 33 33 32 31 30 29 29 28 28 28 28 28 28 28 28 28 29 29 30 30 31 32 33 33 33 34 35 37 38 39 40 41 42 43 45 46 48 50 52 54 56
37 35 33 33 34 33 32 31 31 30 29 28 28 29 29 29 29 29 29 30 31 31 32 33 33 34 34 35 36 37 38 39 40 41 42 43 45 46 48 49 51 53 55 58
38 36 34 33 34 33 32 31 31 30 30 29 29 29 29 29 29 30 30 31 32 32 33 33 34 34 35 36 37 38 39 40 41 42 43 44 46 48 49 51 52 55 58 61
37 35 33 33 33 33 32 32 31 30 30 30 30 30 30 30 30 30 31 32 32 33 33 33 34 34 35 36 37 39 40 41 42 43 44 46 47 49 51 53 55 57 60 63
36 35 34 32 32 32 32 31 31 31 31 31 31 30 30 30 31 31 31 31 32 32 32 33 34 34 36 37 38 40 41 42 43 44 46 47 49 51 53 55 57 60 62 64
35 34 32 31 32 32 32 31 31 31 31 31 31 31 32 32 32 32 31 31 32 32 33 33 34 35 37 38 40 41 42 43 44 46 48 49 51 53 55 57 60 62 64 66
34 33 32 31 31 32 32 31 31 31 31 32 32 32 32 32 32 32 32 32 32 33 33 34 36 37 38 40 41 42 43 44 45 47 49 51 53 55 57 60 62 64 66 67
32 31 31 31 31 31 31 31 31 31 31 32 32 33 33 33 33 33 32 33 33 34 35 36 37 38 40 41 42 43 44 45 47 49 51 53 55 57 60 62 64 66 67 67
32 31 31 31 30 30 30 30 30 31 31 31 32 32 33 33 33 33 33 34 34 35 36 37 39 40 41 42 43 44 45 47 49 51 53 54 57 59 62 64 65 66 67 67
30 30 30 30 30 29 29 29 29 30 30 31 31 32 32 33 33 33 34 34 35 36 37 39 40 41 42 43 44 45 47 49 50 52 54 57 59 62 63 64 65 66 66 66
30 30 30 29 29 29 29 29 29 30 30 30 30 31 32 32 32 33 34 35 36 37 38 39 41 42 43 44 45 46 48 50 52 54 57 59 61 63 64 65 65 65 65 64
29 29 29 28 28 29 29 30 30 30 30 31 31 31 32 32 33 34 35 36 37 38 39 40 42 43 44 44 46 48 50 52 54 56 59 61 63 64 64 65 64 64 63 62
30 29 28 28 28 28 29 29 30 30 30 31 31 32 32 33 34 35 36 37 38 39 40 42 43 44 44 46 48 50 52 54 56 59 61 62 63 64 64 63 63 62 62 60
29 29 28 28 28 29 29 29 29 30 30 31 32 33 33 34 35 36 37 38 39 40 41 43 44 45 46 48 50 52 54 56 58 61 62 63 63 63 62 62 61 61 59 55
29 29 29 29 29 29 29 29 30 30 31 31 32 33 34 34 35 36 37 39 40 41 42 43 45 46 48 49 52 54 56 58 61 62 62 62 62 62 61 60 60 58 54 49
29 29 29 29 29 29 29 30 30 31 31 32 33 33 34 35 36 37 38 39 41 42 43 45 46 48 50 52 54 55 58 60 61 61 62 61 61 60 59 58 56 52 48 45

GEFSNGP_500_meanwind_120.txt.gz
Wind_Speed
50 49 51 50 49 50 50 48 47 42 40 35 34 35 34 33 31 30 29 28 28 28 28 28 28 29 29 30 30 30 30 30 31 31 31 31 32 32 33 34 35 36 37 38
50 49 50 52 49 46 46 45 44 42 39 34 34 36 35 34 32 30 28 28 28 28 27 28 28 29 29 30 30 30 30 30 30 31 31 31 31 32 33 34 35 36 37 38
48 49 52 53 49 47 45 44 43 42 35 34 36 36 35 34 31 29 28 28 28 27 27 28 28 28 29 29 29 29 29 30 30 30 30 31 32 33 33 34 36 36 37 39
48 50 53 49 46 46 44 43 41 39 36 36 35 34 35 34 32 30 29 28 28 28 28 28 29 29 29 29 29 28 29 29 29 30 31 32 32 32 33 35 36 37 38 39
46 48 49 47 44 44 43 43 40 38 36 36 35 37 36 33 32 30 29 29 28 28 28 29 29 29 29 29 28 28 28 29 30 30 31 32 32 33 34 35 36 37 38 39
46 46 46 41 39 40 42 43 38 38 36 37 38 38 32 31 31 31 30 29 29 28 28 28 28 29 29 29 29 28 29 29 30 30 31 32 33 34 35 35 36 37 38 40
45 45 42 38 39 41 42 34 32 35 35 36 37 34 30 32 32 31 30 29 29 29 28 28 28 29 29 29 28 28 29 29 30 30 31 32 33 34 34 35 36 38 39 41
43 43 41 37 38 39 34 31 32 33 34 35 34 33 33 33 33 32 31 30 29 29 28 29 28 28 28 28 28 29 29 29 30 31 32 33 33 34 34 36 37 39 41 42
41 41 38 35 34 33 33 33 33 33 33 33 33 33 33 33 32 31 30 29 29 29 29 29 28 27 27 28 28 28 29 30 31 32 33 33 34 34 36 37 38 40 41 43
39 39 36 32 31 32 33 33 33 32 32 32 31 30 30 30 30 30 29 28 28 29 29 28 27 27 27 27 28 29 30 31 32 32 33 33 34 35 37 38 39 41 42 43
39 37 36 33 30 30 32 32 32 32 31 30 30 28 28 28 29 29 28 27 27 27 27 27 27 27 27 28 28 29 30 31 32 32 33 34 35 36 37 39 40 41 42 44
35 33 34 32 31 32 32 31 30 30 30 30 29 28 27 27 27 28 28 27 27 27 27 27 27 27 27 27 28 29 30 31 32 33 34 34 36 37 38 40 41 42 43 45
33 32 33 33 33 32 31 30 30 29 29 29 29 28 27 26 27 27 27 27 26 26 26 26 26 27 27 28 29 30 30 31 32 33 34 35 36 38 39 40 41 43 44 46
33 31 32 33 32 31 31 30 30 30 28 28 28 27 27 26 26 26 26 26 26 26 26 26 27 27 28 29 30 30 31 32 33 33 35 36 37 38 40 41 42 44 45 47
33 32 32 32 32 32 31 31 30 29 28 28 28 28 26 26 25 25 25 25 25 25 26 27 27 28 29 29 30 31 32 32 33 34 35 37 38 39 41 42 43 44 46 48
33 34 34 34 32 31 31 30 30 29 28 28 27 27 26 26 25 25 25 25 25 25 26 27 28 28 29 30 31 31 32 33 34 35 36 37 39 40 42 43 44 45 47 49
32 33 34 33 32 30 30 30 30 30 29 29 28 27 27 26 26 25 25 26 26 26 27 27 28 29 29 30 31 32 33 34 35 36 37 39 40 41 42 43 45 46 48 51
32 32 33 34 33 32 31 30 30 30 29 29 29 28 27 27 26 27 27 27 27 27 28 28 29 29 30 31 32 33 34 35 36 37 39 40 41 42 43 45 46 48 50 53
32 32 32 33 33 32 32 31 30 30 29 29 28 28 27 27 27 28 27 28 28 28 29 29 30 30 31 32 33 33 34 36 37 39 40 41 42 43 45 46 48 50 52 54
31 31 32 33 33 32 32 31 31 30 29 29 29 29 29 29 29 29 28 28 29 29 29 30 30 31 32 33 33 34 36 37 38 40 41 42 43 44 46 48 50 52 54 55
32 31 31 32 32 31 31 31 30 30 30 29 29 29 29 29 29 29 29 29 29 30 30 30 31 31 32 33 35 36 37 38 39 41 42 43 44 46 48 50 51 53 54 56
32 30 30 31 31 30 30 30 29 29 29 29 29 29 29 29 29 29 29 29 30 30 31 31 32 33 33 34 36 37 38 39 40 41 43 44 46 47 49 51 52 54 56 57
30 30 30 31 31 30 30 29 29 29 29 29 30 29 29 29 28 28 29 29 30 31 32 32 33 33 34 35 36 37 39 40 41 43 44 46 48 49 51 52 54 56 57 57
29 29 30 30 30 29 28 28 28 28 28 28 29 28 28 28 28 28 29 30 31 31 32 33 33 34 35 36 37 38 39 41 42 44 46 48 49 51 52 54 56 57 56 56
28 28 29 30 29 28 28 28 27 27 27 28 28 28 28 28 29 29 30 30 31 32 32 33 34 34 35 36 38 39 41 42 44 46 47 49 51 52 54 55 56 55 55 54
28 28 28 29 29 29 28 28 28 28 27 27 27 27 28 28 29 30 30 30 31 32 33 33 34 35 36 38 39 41 42 44 46 47 49 51 52 53 54 54 54 54 54 54
27 27 27 27 27 27 27 27 27 27 28 28 28 28 28 29 29 30 30 30 31 32 33 33 35 36 38 39 41 42 44 46 47 49 51 51 52 53 53 54 54 54 53 53

GEFSNGP_500_meanwind_126.txt.gz
Wind_Speed
53 52 52 52 53 54 55 53 51 47 45 42 39 37 36 35 35 35 36 36 36 36 36 36 36 36 35 35 35 35 35 35 35 35 35 34 34 34 35 35 35 35 35 36
52 50 50 53 52 51 52 51 50 48 45 41 40 41 39 38 37 36 35 35 35 36 36 35 35 35 35 35 35 34 34 34 34 34 34 34 34 34 34 34 34 35 35 35
51 51 52 54 51 50 49 48 48 48 43 42 41 40 39 39 38 37 36 35 35 35 34 35 35 35 35 34 34 34 33 33 33 33 33 33 32 32 33 33 34 34 34 35
48 50 54 52 49 49 48 47 47 45 44 44 42 40 41 40 39 37 36 36 36 35 35 35 35 35 35 34 34 33 32 32 32 32 32 32 32 32 33 33 33 33 34 35
45 49 51 50 48 46 47 46 45 45 44 44 44 44 43 41 40 38 37 37 37 37 37 36 35 34 34 34 33 33 32 32 31 32 32 32 32 32 33 33 33 34 34 35
41 44 47 45 44 44 45 45 43 43 43 43 45 46 41 40 40 38 38 38 38 38 37 36 35 34 33 33 33 32 31 31 31 31 31 31 31 31 32 32 33 33 34 35
42 42 43 41 42 43 45 42 40 43 43 43 44 42 39 40 40 39 39 38 38 37 36 35 34 33 33 32 32 32 32 31 30 30 30 31 31 31 32 32 32 33 34 36
42 43 40 38 39 41 39 39 40 41 43 43 42 42 41 41 41 40 39 38 38 36 35 34 33 33 32 32 32 32 32 31 30 30 31 31 31 31 32 32 32 33 34 36
42 40 37 38 37 38 38 38 39 40 41 42 42 42 42 41 40 39 38 38 37 36 35 34 34 32 32 31 31 31 31 31 31 30 30 30 31 31 31 32 33 34 35 36
40 39 38 37 36 38 38 37 37 37 38 39 40 41 41 41 39 39 38 37 37 36 35 34 33 32 31 31 31 30 30 30 30 30 30 30 30 31 31 32 33 34 35 36
40 39 39 39 37 37 36 37 37 37 37 37 38 39 40 40 38 37 37 37 36 35 34 33 33 32 31 31 30 30 30 30 29 29 30 30 30 31 32 32 33 34 35 37
37 37 38 38 37 36 35 34 35 36 35 35 36 37 39 38 37 37 36 35 34 34 33 32 31 31 31 30 30 30 30 29 29 29 29 30 31 31 32 33 33 35 36 38
37 38 38 38 37 36 34 33 34 35 34 34 35 36 37 37 36 35 35 34 33 33 32 32 32 31 30 30 30 29 29 29 29 29 29 30 31 31 32 33 34 35 37 38
37 38 38 37 37 36 34 33 34 34 33 33 34 35 35 35 34 34 34 34 33 32 32 31 31 31 30 30 29 29 29 29 29 29 30 31 31 32 33 34 35 36 37 39
36 36 35 35 36 36 34 33 33 33 33 33 33 32 32 32 33 33 33 33 33 32 32 31 30 30 30 30 29 29 29 29 29 29 30 30 31 32 33 34 35 36 38 40
35 36 34 34 35 36 35 34 34 34 33 31 31 31 31 31 32 32 32 32 32 31 31 31 31 30 30 30 29 29 28 29 29 29 30 30 31 32 33 34 35 37 39 40
33 33 33 34 35 35 35 34 35 35 34 32 31 30 30 29 30 31 31 31 31 31 30 30 30 30 29 29 28 28 28 28 28 29 29 30 31 32 33 35 36 38 39 41
33 33 33 34 35 35 34 34 34 33 32 32 32 32 30 30 29 29 30 30 30 29 29 29 29 28 28 27 27 27 27 27 28 28 29 30 31 33 34 35 37 38 40 42
34 33 33 33 33 33 33 33 32 32 31 31 30 30 29 28 28 28 28 29 28 28 28 27 27 27 26 26 26 26 27 27 28 29 30 31 32 33 34 36 37 39 41 43
34 33 32 32 31 31 32 32 31 32 31 30 29 29 28 27 27 27 28 28 28 27 27 26 26 26 26 25 26 26 27 28 29 30 31 31 32 34 35 37 39 41 42 44
33 33 32 31 31 30 31 31 30 30 30 29 29 28 27 27 27 27 27 27 27 26 26 25 25 25 25 25 26 27 28 28 29 30 31 32 33 34 36 38 40 42 43 45
31 31 31 31 31 30 30 30 30 30 29 29 29 28 27 27 27 27 26 26 26 26 26 25 25 25 26 27 27 28 28 29 29 30 31 33 34 36 37 39 41 43 45 47
28 28 29 30 31 30 30 29 29 29 29 29 29 28 27 27 27 27 26 26 27 26 26 26 26 27 27 28 28 28 29 29 30 31 33 34 36 37 39 40 42 44 46 48
27 26 27 29 31 31 30 29 29 29 29 29 29 28 28 27 26 26 26 26 26 26 26 26 26 27 27 28 28 29 29 30 32 33 35 36 37 39 40 42 43 45 47 49
26 26 26 28 29 30 29 29 28 28 27 27 27 27 27 26 26 26 26 26 26 26 26 27 27 28 28 29 29 30 31 32 33 34 35 37 38 40 41 43 45 47 48 49
26 26 26 27 28 29 29 28 28 28 28 28 28 28 27 27 27 27 27 27 27 27 27 28 28 28 29 29 30 31 32 33 34 36 37 38 40 41 43 45 47 48 49 49
26 26 26 25 26 27 27 26 26 26 27 28 28 27 27 27 28 28 27 27 27 27 27 28 28 29 29 30 31 32 33 34 36 37 38 40 41 43 45 47 48 48 48 49

GEFSNGP_500_meanwind_132.txt.gz
Wind_Speed
38 37 38 40 43 47 50 51 52 50 46 44 41 41 39 39 39 40 40 42 42 42 43 44 44 43 42 41 41 41 40 39 39 38 38 38 38 37 36 36 36 36 35 36
39 39 39 39 41 43 46 47 49 50 47 44 43 42 40 39 39 38 39 39 40 40 40 41 42 41 41 40 40 39 38 38 38 38 37 37 37 36 35 35 35 35 35 35
39 38 39 40 40 42 44 46 48 50 47 45 44 42 41 40 39 38 39 40 40 39 39 39 40 40 40 40 39 39 38 37 36 35 35 35 34 34 34 34 34 34 34 35
38 38 39 38 39 39 40 41 45 48 48 47 45 43 42 41 41 40 39 41 41 40 40 39 39 39 39 38 38 37 36 36 35 34 33 33 33 34 34 34 34 34 35 35
37 39 39 37 36 37 39 39 41 45 47 47 47 48 45 42 41 41 41 41 41 41 41 40 39 38 37 37 37 36 35 35 34 34 33 33 33 33 33 33 33 34 34 34
36 37 38 36 35 37 39 40 41 43 45 46 48 48 46 44 44 43 41 41 40 40 40 39 38 37 37 36 36 35 34 33 33 33 33 33 32 32 32 32 32 33 33 33
35 36 36 35 34 38 42 40 40 43 44 46 47 45 44 45 45 45 44 42 40 39 39 38 38 37 36 35 35 34 34 33 33 32 32 32 32 32 32 32 32 32 33 33
35 35 34 33 34 37 38 40 40 42 43 45 45 45 44 45 45 46 45 43 42 40 39 38 38 37 36 35 34 34 33 33 33 32 32 32 32 32 32 32 32 32 32 32
34 34 33 34 35 35 38 40 41 41 42 44 45 44 44 44 44 45 45 44 43 41 40 39 38 37 36 35 35 34 34 33 32 32 32 32 32 31 31 31 31 31 31 32
35 34 34 33 35 37 39 41 42 41 41 43 43 44 44 44 44 44 44 44 43 42 40 39 38 37 36 36 35 34 34 33 33 32 31 31 31 30 30 30 30 31 31 31
35 33 35 33 34 36 39 41 42 42 40 41 42 42 42 43 43 43 43 43 42 41 40 39 38 37 36 36 35 34 33 33 32 31 31 30 30 30 30 30 30 30 30 31
34 33 35 35 35 36 37 39 41 42 41 41 41 40 41 41 41 42 42 42 41 40 40 39 38 37 36 35 34 33 33 32 31 31 30 30 29 29 29 29 29 30 30 30
34 35 34 33 34 34 35 37 39 40 40 39 39 39 41 40 40 40 41 41 40 40 40 39 37 37 36 35 34 33 32 31 31 30 30 29 29 29 29 29 29 29 30 30
33 34 33 32 33 34 35 36 38 38 38 37 38 38 38 38 38 38 38 39 40 39 39 38 36 36 35 34 33 33 32 31 30 30 30 29 29 29 28 29 29 29 30 31
33 33 32 32 33 34 35 35 36 37 36 35 36 37 37 36 37 38 38 39 39 39 37 36 35 34 34 33 33 32 31 31 30 29 29 29 29 29 29 29 29 29 30 31
33 32 32 33 34 35 35 35 34 34 34 34 35 35 35 36 37 37 37 37 37 36 35 35 34 34 33 32 31 31 31 30 30 29 29 29 29 29 29 29 29 30 30 31
30 32 32 32 34 35 34 34 33 33 32 33 33 34 34 35 36 37 37 37 36 35 35 34 33 33 32 31 31 30 30 30 29 29 29 29 29 29 29 29 30 30 31 32
28 31 32 34 34 35 35 34 32 31 30 31 32 32 32 32 33 34 35 35 35 35 35 34 33 33 32 31 31 30 29 28 28 28 28 28 28 28 28 29 29 30 31 32
27 30 32 33 34 34 33 32 31 30 31 31 30 30 30 30 32 33 33 34 33 33 33 33 32 32 31 31 31 30 30 29 28 28 28 28 28 28 29 29 30 30 31 32
27 29 31 32 32 31 30 30 30 30 29 29 30 30 30 31 31 32 32 32 32 31 31 31 31 31 31 30 30 30 30 29 28 28 28 28 28 28 29 29 30 30 31 32
26 28 31 32 31 29 28 29 30 30 28 28 29 29 29 29 30 31 31 31 30 31 30 30 30 30 30 30 30 29 29 28 27 27 27 27 27 28 28 29 29 30 31 32
25 27 29 30 30 29 28 28 29 29 29 29 28 28 27 28 28 28 29 29 29 29 29 29 29 30 30 29 28 27 27 26 26 26 26 27 27 28 28 28 28 29 31 32
25 27 28 28 29 28 28 28 29 29 29 28 27 26 26 27 26 26 28 29 29 29 28 28 28 28 28 28 27 26 26 26 26 26 26 27 27 27 27 28 29 30 32 33
25 26 27 27 27 26 26 27 27 28 28 28 28 27 27 27 26 26 26 27 27 28 28 28 28 27 26 26 26 26 26 26 25 25 25 26 26 26 27 28 29 31 33 34
25 27 28 28 27 26 26 27 28 28 29 28 28 28 27 27 26 26 26 26 26 27 26 26 25 25 25 25 25 25 25 25 24 25 25 25 26 27 28 29 31 32 34 36
25 27 27 27 27 26 27 27 27 27 27 27 27 27 26 26 26 26 26 26 26 25 24 24 24 24 24 24 24 24 24 24 25 25 25 26 27 28 29 31 32 34 36 37
26 26 26 25 26 26 27 27 27 27 28 27 27 26 26 26 26 26 26 26 25 25 24 24 24 23 23 24 24 24 24 25 25 26 26 27 28 29 31 32 34 35 37 39

GEFSNGP_500_meanwind_138.txt.gz
Wind_Speed
30 30 33 35 36 38 41 43 45 41 39 37 36 37 38 41 41 41 42 43 45 48 49 51 52 52 50 49 49 48 47 46 44 44 43 42 41 40 39 39 38 38 37 37
30 30 33 36 37 38 39 41 43 43 42 38 37 36 36 39 41 41 41 41 43 45 47 49 50 50 49 48 47 47 46 45 44 43 42 41 40 39 38 38 37 37 36 36
30 30 33 35 35 36 37 38 42 43 41 40 39 39 37 36 40 42 42 42 43 44 44 46 47 48 49 48 47 46 45 44 44 43 41 40 39 38 37 37 36 36 36 35
29 30 33 29 32 34 36 38 41 42 41 40 39 39 39 38 38 40 41 41 42 43 44 45 45 46 47 47 46 44 44 43 43 42 40 39 38 37 37 36 35 35 35 34
28 31 31 28 28 31 34 37 40 41 41 42 40 40 39 39 40 40 40 41 42 42 43 43 43 44 44 44 43 42 41 40 40 40 38 38 37 36 36 35 35 34 34 34
28 29 31 27 26 27 32 35 37 40 42 41 41 40 39 39 39 39 41 42 42 42 43 43 43 42 42 41 40 39 39 38 38 37 37 36 36 35 34 34 33 33 33 33
28 29 29 27 26 28 32 33 34 39 41 42 41 39 38 39 39 40 40 42 42 42 42 42 41 41 40 40 39 39 38 37 37 36 35 34 34 34 33 33 33 32 32 33
27 29 27 25 28 30 32 34 33 36 40 43 43 41 39 40 40 41 40 41 41 42 42 41 41 41 40 39 38 38 37 36 35 35 34 33 33 32 32 32 32 32 32 32
29 29 27 26 29 30 33 35 35 36 39 42 43 42 41 40 40 40 40 40 41 41 41 41 40 40 40 39 38 37 36 35 34 34 33 33 32 31 31 31 30 30 30 30
29 28 27 27 29 31 32 35 35 36 37 39 41 43 42 42 42 41 40 40 40 40 41 40 39 39 39 39 38 36 35 34 33 33 32 32 31 31 30 30 30 29 29 30
30 28 28 29 30 31 33 34 35 36 36 37 38 40 42 43 44 43 42 41 40 40 40 39 39 39 38 38 37 36 34 33 32 31 31 31 30 30 30 29 29 29 29 29
29 28 30 30 32 33 32 33 34 35 36 36 36 37 39 41 42 43 42 41 41 41 41 40 40 39 37 37 36 35 34 33 32 31 30 30 30 29 29 29 29 28 28 28
29 29 29 30 32 33 32 32 34 35 36 36 36 36 39 40 41 42 42 40 40 41 41 40 39 38 37 36 36 35 34 33 32 31 30 30 30 29 29 28 28 27 27 27
28 29 29 29 31 32 33 33 35 36 37 37 36 37 38 40 41 40 41 40 40 40 41 41 39 38 37 36 35 35 33 32 31 31 30 29 29 28 28 27 27 26 26 27
27 28 29 30 31 31 32 34 35 36 37 38 37 37 38 39 41 41 41 41 41 41 40 40 39 38 37 36 35 34 33 31 31 30 30 29 28 27 27 27 26 26 26 26
25 26 27 29 29 31 32 33 34 35 36 37 38 38 39 39 40 40 41 42 42 42 41 39 38 37 37 36 35 33 32 32 31 31 30 29 28 27 26 26 26 26 26 26
24 25 27 28 29 30 31 32 33 35 36 36 37 38 39 39 39 39 40 40 41 42 42 40 39 38 37 37 35 33 32 32 31 30 30 29 28 27 26 26 26 26 26 26
23 23 25 26 27 29 29 30 32 34 36 37 37 38 38 38 38 39 40 40 40 41 41 41 40 38 38 37 35 33 32 31 30 30 29 29 28 27 27 26 26 26 26 27
20 20 22 24 25 26 27 29 30 32 34 35 35 35 35 36 36 37 39 40 40 40 40 40 40 38 37 35 34 33 32 31 30 30 29 29 27 27 27 27 26 26 26 27
18 18 20 22 23 24 26 27 28 31 33 34 34 33 34 34 34 35 36 37 38 38 38 38 38 37 36 35 33 32 32 31 30 30 29 28 27 26 26 26 26 26 27 27
16 16 18 20 22 23 25 26 27 29 31 32 33 33 33 33 34 34 35 35 36 37 37 36 36 35 35 34 33 32 31 31 30 29 28 27 26 26 25 26 26 26 26 27
15 16 18 19 21 23 26 26 27 28 29 29 30 31 31 32 32 32 32 33 34 35 36 35 34 34 34 33 32 31 31 30 29 27 26 25 25 25 25 25 25 26 26 26
15 16 17 19 22 25 27 27 28 29 29 29 29 29 30 30 30 30 30 31 32 33 34 34 34 34 33 31 31 30 30 29 27 26 26 26 25 25 25 25 25 25 26 26
14 16 18 20 24 26 26 27 27 28 28 28 28 28 29 29 29 29 30 30 31 32 32 31 31 31 31 30 30 30 29 28 27 26 25 25 24 24 25 25 25 26 26 26
14 17 19 20 23 24 25 26 26 26 26 26 27 27 28 29 30 30 30 30 31 31 31 31 30 30 29 29 28 27 27 27 26 26 25 24 24 24 25 25 26 25 25 26
15 17 20 21 23 24 24 25 25 25 26 26 26 26 27 28 29 30 30 30 30 29 29 29 30 30 29 28 27 26 26 26 25 24 24 24 24 24 25 25 25 25 26 26
15 18 21 22 23 23 24 24 25 25 26 25 25 26 27 27 27 28 29 29 28 28 27 28 28 28 27 26 26 25 25 25 24 24 23 24 24 24 24 25 25 25 26 27

GEFSNGP_500_meanwind_144.txt.gz
Wind_Speed
25 25 26 27 29 31 33 34 35 33 33 34 36 37 37 39 41 42 44 46 49 51 53 53 54 54 54 54 53 53 52 52 49 47 46 45 45 44 43 42 42 41 40 38
25 25 27 27 27 29 31 32 33 33 32 32 36 36 38 39 40 42 44 46 48 50 50 51 51 53 53 53 52 52 51 50 50 49 47 46 45 44 44 43 42 42 41 39
27 25 27 27 24 25 29 31 33 34 31 32 35 36 37 38 39 40 43 45 47 49 50 49 50 52 52 52 51 51 51 50 50 49 47 46 45 44 43 42 42 41 39 38
26 26 27 23 22 23 26 30 33 34 33 34 35 36 36 37 37 38 41 44 47 48 49 48 49 50 51 51 51 51 51 50 49 49 48 46 45 44 43 41 40 38 37 37
24 25 26 23 21 22 25 28 31 32 32 34 35 36 36 37 37 37 39 44 47 48 49 48 49 50 51 51 50 50 50 49 49 48 47 46 45 43 41 40 38 37 37 37
25 26 26 21 21 24 26 28 29 30 31 33 35 36 35 37 37 38 38 41 45 46 48 48 49 49 50 51 50 50 50 49 48 47 46 45 44 41 40 38 37 37 37 36
25 26 25 20 22 25 27 27 28 31 31 32 34 35 35 37 36 36 38 39 43 44 47 48 48 48 48 49 49 49 49 48 47 47 46 44 43 41 39 39 38 37 36 35
24 25 24 21 22 25 27 28 30 31 31 32 34 36 37 37 36 36 38 39 41 44 46 47 47 47 47 47 48 48 48 48 47 46 45 43 42 40 39 39 37 36 35 34
26 25 24 24 24 25 27 29 31 33 33 33 34 36 37 37 36 36 39 40 41 42 44 45 47 47 46 47 48 48 48 47 46 45 44 42 41 40 38 37 36 35 34 33
28 26 26 26 26 26 27 29 31 32 33 34 35 36 38 38 36 36 38 38 40 42 43 43 44 45 46 47 48 48 47 46 45 43 42 41 40 38 37 35 34 34 34 33
28 26 28 27 27 27 28 29 31 32 32 33 35 37 38 38 37 35 37 38 39 40 40 41 42 43 45 46 47 47 46 46 44 43 41 40 38 37 36 35 33 32 32 32
26 25 26 25 27 28 29 30 31 32 32 33 34 36 38 39 38 37 37 38 39 40 39 40 41 42 43 44 45 45 45 44 43 42 41 40 38 36 35 34 33 32 32 32
27 26 26 25 26 27 28 30 31 33 33 33 34 36 38 39 39 39 38 38 38 39 39 39 40 42 42 42 43 43 43 42 42 41 40 38 36 34 33 33 33 32 32 31
27 26 26 26 26 26 28 30 31 32 33 34 34 35 38 40 41 40 40 39 38 38 39 39 40 41 42 42 42 43 43 42 41 40 39 37 35 34 33 32 32 31 31 30
26 26 26 26 26 27 28 29 30 31 32 33 35 35 37 39 41 41 41 41 40 39 39 40 40 41 42 42 42 41 41 40 39 38 37 36 34 33 33 32 32 31 30 29
25 26 26 26 27 27 28 29 30 31 32 32 33 35 37 38 40 41 41 41 41 40 40 41 41 41 41 41 41 40 39 38 38 36 35 35 34 33 31 31 31 30 29 28
24 25 26 27 26 27 29 29 30 32 33 33 34 35 36 37 38 40 40 39 40 40 40 40 41 41 41 40 40 39 39 37 36 35 34 33 33 32 30 30 29 28 27 27
22 22 23 24 25 25 27 29 29 30 31 33 35 35 36 37 38 39 39 40 39 38 38 38 39 40 40 39 38 38 37 37 36 34 33 33 32 31 29 28 27 27 26 26
20 20 19 20 21 22 23 26 27 29 31 33 34 34 35 36 37 38 39 39 39 38 38 38 38 39 38 38 38 37 37 37 36 35 34 33 31 29 28 27 27 27 26 25
18 18 18 18 19 19 21 23 25 27 29 31 33 34 35 36 37 38 38 38 38 37 38 38 38 39 38 37 37 37 36 36 35 34 32 31 30 29 28 27 27 26 25 24
17 17 16 16 17 17 19 22 24 25 27 29 31 32 36 36 36 36 37 37 37 38 38 38 39 38 37 36 36 36 35 34 32 32 31 30 29 29 28 27 26 25 24 23
14 13 14 14 14 15 17 20 23 25 27 28 29 32 34 35 35 36 36 36 37 37 37 37 37 37 37 36 35 35 33 33 32 31 30 29 28 28 27 26 25 24 23 22
11 11 12 13 14 14 16 18 22 26 28 29 30 31 32 33 34 34 36 37 37 37 37 36 36 36 36 35 34 33 32 31 31 31 30 28 27 26 25 25 24 23 22 22
8 10 12 12 12 13 15 18 22 25 28 29 30 30 31 31 33 34 35 36 36 36 36 36 36 36 35 33 33 31 31 30 30 30 29 28 27 26 25 24 23 22 22 22
8 9 10 10 10 12 15 19 23 25 28 29 29 29 30 31 32 33 34 34 35 34 34 34 33 33 33 33 32 32 31 30 29 29 28 27 25 24 24 23 23 22 22 21
8 9 10 10 11 13 16 20 23 25 26 27 27 28 28 30 31 32 33 34 34 34 33 33 32 32 32 32 32 31 30 29 28 28 26 25 24 23 23 23 22 22 21 21
9 10 11 12 13 15 17 20 22 24 25 26 26 27 28 30 31 31 32 33 33 33 32 32 31 31 31 30 29 29 28 28 27 25 25 24 23 23 23 22 21 20 20 20

GEFSNGP_500_meanwind_150.txt.gz
Wind_Speed
30 28 29 29 29 30 32 33 34 33 31 27 28 30 30 32 36 38 41 43 45 49 52 54 56 58 59 59 59 59 59 58 57 55 54 52 51 50 49 47 45 43 41 41
31 30 30 30 28 28 29 31 33 33 32 29 30 31 31 32 35 38 41 43 45 48 50 52 54 56 57 58 58 58 58 58 58 56 55 53 52 51 49 48 46 45 43 42
31 30 31 30 26 27 27 28 30 32 31 30 31 31 31 32 36 38 40 41 44 47 49 51 52 55 56 57 57 58 58 58 58 57 56 54 52 51 50 49 47 45 45 44
32 30 30 26 26 27 27 27 28 30 30 30 31 31 32 33 34 37 39 40 43 46 48 49 51 53 55 56 57 56 57 57 57 57 56 54 52 51 51 49 48 46 45 44
30 30 29 24 24 26 27 27 26 27 28 30 31 31 31 32 33 36 38 40 42 45 47 48 50 52 54 55 56 55 55 56 57 56 55 54 52 50 49 48 47 46 45 44
30 31 29 24 23 24 26 27 25 26 26 27 29 30 29 31 33 34 36 38 41 44 46 48 49 50 52 53 54 54 53 54 55 55 55 54 53 51 49 48 47 46 45 44
30 30 28 24 23 23 25 25 26 26 26 26 28 29 29 31 32 33 34 36 40 43 46 47 48 49 50 51 53 53 52 52 54 55 54 54 53 51 50 48 47 46 44 43
28 29 26 25 25 25 25 26 27 26 26 27 27 28 29 31 33 34 34 35 38 43 45 46 47 48 49 50 51 53 52 52 53 54 54 53 51 50 49 48 47 46 44 43
30 28 27 27 28 28 28 27 28 27 27 26 26 28 30 31 34 35 36 35 37 41 43 44 45 47 48 48 49 51 52 51 51 53 53 51 50 49 48 47 46 45 44 42
30 27 27 28 28 29 29 28 28 29 28 27 27 28 29 31 33 35 36 37 37 40 42 43 45 46 47 47 48 49 50 51 50 51 52 51 50 48 47 46 44 44 43 41
30 27 28 27 27 27 27 27 27 28 29 29 28 28 29 31 33 36 37 37 38 39 42 44 45 46 46 47 47 48 49 49 49 49 50 50 49 47 46 45 44 42 40 39
30 29 30 28 29 30 29 28 27 27 28 29 27 27 29 31 33 35 37 37 37 39 42 44 45 46 45 46 47 47 47 48 48 48 49 49 48 47 45 43 42 41 40 38
31 31 31 29 30 31 31 30 29 29 28 28 27 27 29 30 32 34 36 37 37 38 41 42 43 45 46 45 46 48 48 48 47 47 47 46 46 45 44 42 41 40 38 37
31 31 30 30 31 31 32 31 30 29 29 28 27 27 29 30 32 34 35 36 36 37 40 41 42 43 44 44 46 47 48 48 47 46 45 45 44 43 42 40 39 38 37 36
30 31 30 29 30 30 31 30 29 29 30 30 29 28 29 30 31 33 35 36 37 37 39 40 43 44 43 43 44 45 45 46 45 45 45 44 43 42 40 39 38 37 36 35
29 30 29 28 28 29 29 28 28 28 29 30 29 29 29 30 31 32 34 35 36 37 39 40 42 43 43 43 44 44 44 43 43 43 43 43 41 40 39 39 38 36 35 33
27 27 27 27 27 28 28 28 27 27 28 28 28 27 29 31 32 32 33 33 34 36 38 39 40 41 41 40 41 41 41 41 41 41 41 41 40 39 38 38 36 35 33 32
24 23 24 24 24 25 25 25 25 25 25 26 27 27 29 31 32 33 33 33 33 35 36 37 38 39 39 38 38 39 39 40 40 40 40 40 38 37 36 36 34 33 32 31
22 22 22 21 21 21 21 21 22 23 23 24 25 27 28 30 31 32 32 32 33 34 34 34 36 38 37 37 36 37 38 39 39 39 39 38 37 35 35 34 33 32 30 29
20 21 21 21 21 20 20 19 19 20 21 23 24 26 28 29 30 32 32 31 32 33 33 34 35 37 36 35 36 37 38 38 38 38 37 36 34 34 34 33 31 30 29 28
18 18 18 18 18 18 19 18 17 18 19 21 23 25 27 29 30 30 30 30 32 34 34 35 35 36 35 35 35 35 36 37 36 36 35 34 33 33 32 31 30 28 27 27
17 16 16 16 15 16 16 16 15 16 18 20 22 24 26 28 29 30 30 31 32 33 34 35 35 34 33 33 34 34 35 35 35 34 33 32 32 31 30 29 28 28 27 26
15 14 14 14 14 14 14 13 14 15 18 20 22 23 26 27 28 29 30 31 31 32 33 34 34 34 33 32 33 34 34 33 33 32 32 32 31 29 28 27 27 26 25 24
13 12 11 11 11 12 11 11 12 14 16 18 20 23 25 26 28 29 30 31 32 32 33 34 33 32 32 32 32 33 32 32 32 31 31 30 30 28 27 26 26 25 23 21
11 10 10 10 9 9 9 10 11 13 14 16 19 22 24 25 27 29 31 32 33 34 34 34 34 33 32 32 32 32 32 31 30 30 29 28 28 27 25 25 24 23 21 21
10 9 8 7 8 8 8 9 11 12 13 15 17 20 23 25 27 29 31 32 33 34 34 34 34 33 32 32 32 32 31 30 29 29 28 27 27 26 25 24 23 23 22 21
8 7 6 5 6 7 8 9 11 12 14 15 17 19 22 25 28 29 31 32 32 33 33 33 33 33 32 32 31 30 30 29 28 27 26 26 26 26 25 24 23 23 22 22

GEFSNGP_500_meanwind_156.txt.gz
Wind_Speed
38 36 35 34 33 32 32 32 33 32 30 26 26 27 27 28 30 31 32 34 36 39 44 48 51 55 58 60 62 62 61 61 61 59 58 57 55 55 54 52 52 51 49 47
37 35 35 34 32 31 31 32 33 32 29 26 27 28 29 30 32 33 33 34 36 39 42 46 49 52 56 58 60 61 61 60 60 60 60 58 56 56 56 53 52 51 50 47
36 34 35 32 28 29 30 30 31 31 29 28 28 28 29 31 31 33 33 34 36 39 41 44 46 49 53 57 58 59 60 60 60 60 59 58 56 56 56 54 52 51 50 48
37 35 34 31 28 28 28 28 29 29 28 28 28 28 29 30 31 32 33 34 35 37 40 43 45 48 51 54 57 58 58 59 58 58 57 57 58 57 56 54 53 51 49 48
36 36 34 28 26 27 27 26 26 26 26 26 26 27 27 29 30 31 33 35 35 36 39 43 45 47 49 52 55 56 57 57 57 57 55 55 56 56 56 54 53 52 49 47
35 34 33 28 27 27 27 24 22 24 24 24 25 26 25 27 29 30 31 34 35 36 39 41 43 45 48 50 52 54 55 55 56 57 55 55 55 54 54 52 51 51 50 48
33 34 32 28 26 25 25 24 22 23 23 24 25 25 25 27 28 29 30 33 34 36 39 41 43 44 45 48 51 53 54 55 55 55 55 54 54 54 53 51 50 50 49 49
32 33 31 28 27 26 25 25 24 24 23 24 24 25 25 26 28 29 30 32 34 35 37 41 42 43 44 46 49 52 54 54 54 54 55 54 53 53 53 51 50 50 47 47
32 31 30 30 29 28 27 26 25 25 24 24 25 25 25 26 28 30 30 31 32 33 34 38 41 42 44 45 47 49 52 54 55 54 53 54 53 52 53 51 48 48 46 46
32 29 29 30 30 29 29 27 26 26 25 25 25 25 25 25 26 29 31 32 33 33 34 36 39 40 43 45 45 47 49 51 53 53 52 52 53 52 52 51 49 47 46 44
31 29 30 30 31 31 30 29 28 27 27 27 26 25 26 25 26 28 30 32 33 34 35 35 37 39 42 44 44 45 47 48 49 50 50 51 51 51 50 49 48 47 47 45
31 30 31 30 31 31 31 30 30 29 28 27 27 27 27 27 27 28 30 31 33 35 36 36 37 38 40 41 42 43 45 47 47 48 49 49 49 49 49 48 47 46 45 44
32 32 32 31 31 31 32 31 31 31 30 29 29 29 28 28 28 29 30 32 33 35 35 35 36 38 39 40 41 42 43 44 46 46 47 47 47 47 47 47 47 45 43 42
32 32 31 31 31 31 32 32 31 30 29 28 28 27 27 27 27 28 30 31 33 34 35 36 37 37 39 40 40 41 42 43 44 44 45 45 46 46 46 46 45 44 42 40
30 30 29 29 29 29 30 29 28 27 27 26 26 26 26 25 26 27 29 31 33 34 35 36 37 38 39 40 40 40 41 42 43 43 44 43 43 44 44 44 44 43 42 40
27 27 27 26 26 26 26 26 25 24 25 26 26 26 25 24 25 26 28 30 32 33 34 35 37 38 40 40 40 40 40 41 42 43 43 43 43 44 43 42 41 40 40 40
26 25 25 25 25 25 24 24 24 24 24 24 25 26 25 24 25 25 27 30 31 32 34 35 36 38 40 41 41 41 41 41 43 43 43 43 44 44 43 41 40 39 39 38
24 23 22 22 22 21 21 21 22 22 22 22 22 23 24 24 24 25 27 29 30 31 33 34 36 38 39 40 41 41 42 43 43 43 43 43 43 43 42 41 39 38 37 36
23 22 21 21 20 19 19 19 20 20 20 19 19 20 21 22 24 26 27 29 29 30 32 33 34 37 38 40 40 41 42 42 43 43 44 43 43 43 43 41 39 37 36 34
22 21 20 19 18 18 17 17 17 17 17 17 17 18 19 20 21 24 26 26 28 30 32 33 34 36 38 40 40 41 40 41 41 42 42 42 41 41 40 38 37 37 35 33
21 20 18 17 16 15 14 14 14 14 14 14 15 16 17 19 20 22 24 26 28 31 32 33 33 35 38 39 40 40 40 40 40 39 39 40 40 39 38 37 36 35 34 32
19 18 17 15 13 13 12 11 11 11 12 12 13 15 16 18 19 20 23 26 28 30 31 33 33 35 37 38 38 39 39 38 38 38 38 38 38 37 35 35 34 34 33 31
18 16 14 13 12 11 11 10 9 8 9 10 12 14 16 17 19 21 23 25 27 28 30 32 34 36 38 37 37 38 38 38 38 38 37 36 36 35 34 34 33 33 31 30
16 15 13 11 10 9 8 7 7 7 8 9 11 13 15 18 20 22 23 25 27 29 30 32 34 36 37 37 37 38 38 38 37 36 35 35 35 35 34 34 33 32 31 29
14 12 11 10 8 8 7 6 7 7 8 8 10 13 15 17 19 22 24 25 27 30 32 33 35 35 35 35 36 37 37 37 36 36 36 35 35 35 34 32 32 31 30 29
11 10 9 8 7 6 6 7 7 7 8 9 10 13 15 17 19 21 23 25 28 31 33 34 34 34 34 34 35 35 35 36 36 36 35 34 33 33 32 31 30 29 29 28
8 8 7 7 6 6 6 7 7 8 9 9 11 13 15 18 20 21 23 26 29 31 33 33 33 33 33 34 34 34 34 34 34 34 34 33 33 32 31 29 28 28 26 25

GEFSNGP_500_meanwind_162.txt.gz
Wind_Speed
46 43 43 43 42 41 42 42 43 40 39 35 34 33 31 31 29 29 29 29 29 29 31 32 34 36 39 42 45 48 50 51 51 52 53 55 54 52 53 51 48 47 48 49
45 43 43 43 41 41 41 41 41 40 37 34 35 33 31 30 29 29 29 28 29 30 31 33 34 35 37 41 44 47 50 51 52 52 53 53 53 52 51 51 50 46 47 47
45 43 44 43 40 39 39 38 38 39 37 34 33 32 30 29 28 28 28 28 29 30 31 32 34 35 36 40 43 46 48 50 53 53 51 52 53 52 51 51 50 47 45 46
46 45 46 43 39 39 39 37 37 37 34 34 33 32 31 30 28 28 29 29 30 31 32 32 33 34 36 39 42 45 47 51 53 52 50 51 53 52 50 51 50 47 45 44
46 47 47 42 39 38 38 36 34 34 33 33 32 31 30 29 28 28 30 30 31 31 32 33 33 33 35 38 41 44 46 49 52 54 52 51 51 51 50 50 50 48 45 43
46 47 47 42 40 39 38 37 33 33 32 31 31 30 28 28 28 28 28 30 31 32 32 33 34 34 34 38 40 42 45 48 50 53 53 52 51 50 49 49 49 48 45 42
45 46 46 41 40 39 37 36 34 32 31 31 31 30 28 27 28 27 27 29 30 32 33 33 34 34 34 37 40 42 44 46 49 52 53 52 52 51 50 48 47 47 45 42
44 45 43 40 40 38 37 36 35 33 32 31 30 29 28 28 28 28 28 28 30 31 32 33 33 33 33 36 39 41 42 44 47 50 50 51 52 52 51 49 48 47 45 44
44 43 42 41 39 37 37 37 36 34 32 31 30 29 29 29 29 29 29 29 30 31 31 32 33 33 33 35 38 40 41 42 44 46 47 50 51 51 50 49 48 47 45 44
44 42 41 40 38 37 37 37 35 34 33 33 32 30 31 31 30 29 29 29 30 30 31 32 34 35 34 35 38 39 38 40 42 43 44 46 48 50 49 48 47 46 45 44
43 41 41 39 38 37 37 36 34 33 33 33 33 32 31 30 30 30 30 29 30 30 31 32 34 36 35 36 37 39 39 39 41 42 42 42 44 46 47 47 46 45 43 42
42 41 41 39 38 37 36 35 34 33 33 33 33 32 32 30 29 30 30 30 30 30 31 32 34 35 35 36 37 37 39 39 40 41 42 41 41 43 45 44 43 44 43 42
41 40 40 38 37 36 36 35 34 33 32 32 32 33 32 31 30 29 30 30 31 31 31 32 33 35 36 38 38 37 38 39 39 40 41 41 41 41 42 43 42 42 41 41
39 39 38 37 35 34 34 33 33 32 31 31 32 32 32 30 29 28 29 29 30 30 31 31 32 34 36 38 38 38 38 38 39 39 40 41 41 41 42 41 40 40 40 40
37 36 35 34 33 33 32 32 32 31 31 31 31 31 31 29 28 27 27 27 28 28 29 30 31 33 36 37 38 38 38 38 38 39 39 40 41 41 41 41 40 39 39 40
33 33 32 32 32 32 31 31 30 30 31 31 31 31 31 29 27 26 26 26 26 27 28 29 30 32 35 37 37 38 38 38 38 39 40 40 40 41 41 40 40 39 38 38
31 30 31 31 31 31 30 30 30 30 30 30 31 31 30 28 26 25 25 25 25 26 27 28 30 32 34 36 36 37 38 38 39 40 40 40 40 41 41 41 41 40 38 37
29 29 30 30 29 29 29 29 29 29 29 29 28 28 27 25 23 23 23 23 24 25 25 26 29 31 33 34 36 37 37 38 39 40 40 40 40 40 41 41 41 40 39 37
28 28 28 27 27 27 27 27 27 26 25 25 24 23 22 21 21 21 21 21 22 22 24 25 26 28 31 33 35 37 37 38 39 40 40 39 39 40 41 41 40 39 37 36
27 27 26 26 26 26 25 24 24 23 22 21 21 20 19 18 18 19 19 20 21 22 23 25 26 27 29 31 34 35 36 38 39 39 40 40 39 40 40 40 39 38 36 35
25 24 24 24 24 23 22 21 21 20 19 19 18 17 16 15 15 15 16 17 19 20 22 24 26 27 29 30 32 34 35 37 38 39 41 41 39 39 39 39 38 37 35 34
22 22 22 22 21 20 20 20 19 18 17 16 14 14 13 12 12 12 13 14 16 18 20 23 25 27 29 30 31 33 35 37 38 39 40 41 40 39 38 38 38 37 35 33
20 20 19 19 18 18 18 17 17 15 13 12 11 11 10 9 9 10 11 13 14 16 19 22 24 26 27 29 31 33 36 37 38 38 38 38 38 37 37 37 37 37 35 32
18 17 17 16 16 15 15 15 13 12 11 10 10 9 8 8 8 8 10 12 14 16 18 21 24 25 26 28 30 33 35 37 37 37 37 37 36 36 37 37 36 35 33 31
16 15 15 14 13 13 13 12 11 10 9 8 8 7 7 7 7 8 10 12 14 15 18 21 23 24 26 27 29 32 33 35 35 36 36 36 36 36 36 36 35 33 31 30
14 14 13 13 12 11 10 9 8 8 7 6 6 6 5 5 7 7 9 11 14 16 18 20 22 24 26 27 29 30 32 33 33 33 34 34 35 35 35 34 33 31 30 29
13 12 12 11 10 9 8 7 6 5 5 5 5 4 4 5 7 8 10 12 14 16 18 19 21 24 26 27 28 29 31 33 33 33 33 33 33 33 33 32 31 30 29 28

GEFSNGP_500_meanwind_168.txt.gz
Wind_Speed
46 44 44 45 44 43 44 45 46 45 44 40 37 38 38 37 36 36 35 33 31 29 28 28 27 28 29 30 31 34 35 35 37 39 42 44 45 45 46 48 51 51 49 46
47 45 45 46 44 43 44 44 45 44 42 39 38 37 37 36 35 34 33 32 30 29 29 28 27 27 28 30 31 33 34 35 36 38 39 42 45 46 46 46 48 49 49 46
47 45 46 46 42 42 42 41 42 43 41 39 39 37 37 36 35 33 32 31 29 29 29 28 27 27 28 29 31 32 33 35 35 36 38 39 42 45 45 46 47 49 49 46
48 47 47 44 42 41 41 40 40 41 40 39 38 37 36 35 33 31 30 29 29 29 28 28 27 27 28 29 30 31 32 33 36 37 38 38 40 44 45 45 45 47 47 46
47 48 48 43 41 41 42 41 40 40 39 38 37 37 35 34 33 31 30 30 30 29 29 27 27 28 27 28 29 30 31 34 36 37 37 38 40 42 44 46 45 47 47 46
46 46 46 43 41 42 43 42 40 39 38 38 38 36 33 33 32 31 31 31 30 29 28 27 26 27 28 28 30 31 32 34 37 38 37 38 39 42 43 45 46 47 47 46
44 45 45 42 42 43 43 43 41 39 38 38 37 36 35 33 32 31 31 30 30 29 28 27 26 27 28 28 30 31 32 34 36 37 38 37 38 41 43 43 45 47 46 44
43 45 44 42 42 42 43 42 42 40 39 39 37 35 34 33 32 31 30 29 29 29 29 28 27 27 28 28 30 31 32 33 35 37 38 38 38 39 41 43 45 46 46 44
44 44 42 41 42 42 43 43 42 41 39 38 37 35 34 33 32 31 30 30 29 29 28 28 28 27 28 29 30 31 33 34 35 36 37 38 38 38 41 42 43 45 44 43
44 42 41 42 42 43 43 43 41 41 39 38 37 35 34 33 32 31 31 31 30 29 28 27 28 27 28 29 30 32 33 34 34 35 36 37 38 38 40 42 43 43 42 40
44 42 43 43 43 43 43 43 42 41 40 38 37 35 33 32 32 31 30 30 30 29 28 27 27 27 28 29 30 32 33 34 34 35 36 37 39 40 41 42 43 42 40 39
44 43 45 43 43 43 42 42 41 40 38 37 36 35 33 32 31 30 29 29 30 29 28 27 27 27 28 29 30 32 33 34 35 35 36 38 39 41 41 42 43 43 41 40
43 43 43 42 41 41 41 40 39 38 36 35 34 33 32 31 29 29 29 29 29 28 27 27 27 28 28 29 30 32 33 35 36 36 36 37 39 41 41 42 43 44 42 40
42 41 41 40 39 40 39 38 36 35 33 32 31 31 30 30 29 29 29 29 29 28 28 28 27 28 29 30 30 32 33 35 36 37 37 37 38 41 42 42 42 44 43 40
40 39 38 38 37 38 37 35 34 32 31 31 30 30 30 30 29 29 29 29 28 28 28 28 27 27 29 30 31 32 33 35 36 38 38 38 38 40 41 41 41 41 42 41
36 36 36 36 35 35 34 32 32 31 30 30 29 29 30 30 29 29 29 29 28 27 27 27 26 27 28 29 30 31 33 35 36 37 37 37 38 39 40 41 40 40 40 40
34 34 34 34 33 33 32 31 30 29 28 28 28 28 28 28 28 28 28 28 27 26 26 25 26 27 28 29 30 31 32 35 36 38 38 38 39 40 41 40 40 40 39 39
32 32 31 31 30 29 29 28 28 28 27 27 26 26 27 26 26 25 25 25 24 24 24 24 25 26 27 29 30 31 33 35 38 38 39 39 40 41 42 40 40 40 39 40
29 28 28 28 27 25 25 25 25 24 24 24 24 24 24 23 22 22 21 21 21 21 21 22 23 24 26 28 31 33 33 36 37 37 38 39 40 42 42 41 40 40 40 40
26 25 25 24 23 23 23 22 22 21 21 21 21 21 20 20 19 18 18 18 18 18 19 21 21 23 24 26 29 32 34 36 37 37 38 38 39 41 42 41 40 39 40 40
24 23 22 22 22 21 20 19 18 18 18 18 18 17 17 17 17 16 15 16 16 16 17 18 19 21 23 26 29 30 33 36 36 36 37 38 40 41 43 42 41 40 40 40
22 21 21 20 19 17 16 15 15 15 15 15 14 14 14 13 13 13 13 13 13 14 14 16 17 19 21 24 28 30 32 34 35 36 37 37 39 41 42 42 41 41 40 40
19 19 18 16 15 14 13 13 12 13 12 12 13 12 11 10 10 11 10 10 10 11 12 14 16 17 20 23 27 29 32 33 34 35 36 37 39 41 41 41 41 41 41 40
17 16 14 13 13 12 11 11 12 11 11 11 11 11 10 9 8 8 8 8 8 9 11 13 15 16 18 22 25 29 31 33 34 34 35 36 38 40 40 40 41 41 40 39
15 14 13 12 11 11 11 11 11 11 11 10 10 8 8 7 6 6 6 6 7 8 11 13 15 17 19 22 25 28 30 32 33 33 34 35 37 38 39 39 39 39 38 37
13 12 11 11 11 10 10 10 10 10 9 8 7 6 5 4 4 3 3 5 7 9 12 14 16 18 20 23 25 26 28 30 32 33 33 35 36 37 37 37 37 37 36 35
11 10 10 9 9 9 9 9 8 7 6 5 4 3 2 1 0 2 3 6 8 11 13 15 17 19 20 22 24 26 28 30 31 32 33 34 34 35 36 36 35 35 34 34

GEFSNGP_500_meanwind_174.txt.gz
Wind_Speed
48 47 48 48 48 49 50 50 52 52 52 49 48 49 49 48 48 47 46 44 43 41 40 38 37 37 37 35 34 35 34 34 32 33 34 35 36 37 38 39 40 40 40 41
50 48 48 49 48 47 48 49 51 52 51 47 48 49 49 48 47 46 45 43 42 40 39 38 36 36 35 34 34 34 33 33 32 32 33 34 35 36 37 38 38 39 40 41
51 48 50 50 46 46 47 48 49 51 50 48 48 48 47 46 45 44 43 42 41 39 38 38 37 36 35 33 31 32 32 31 31 31 31 32 34 34 34 35 36 37 39 39
50 50 52 49 47 47 48 48 48 49 48 48 48 47 45 45 44 43 42 42 40 39 37 36 36 35 34 32 31 31 30 30 30 30 31 32 33 33 34 34 35 36 37 38
51 52 53 49 46 46 47 49 47 48 48 48 47 46 45 44 44 43 42 41 40 38 37 36 35 34 33 32 31 30 30 29 29 30 31 31 32 32 33 34 34 34 34 37
51 52 53 49 46 46 49 50 46 47 47 47 46 45 43 42 42 41 41 41 40 38 36 35 34 33 31 29 29 29 29 29 29 30 30 30 31 31 32 34 34 33 33 35
50 51 52 48 47 48 49 49 47 47 47 46 45 44 43 42 41 42 42 41 40 38 36 34 32 31 29 27 26 25 25 26 27 29 29 29 31 31 31 33 33 33 33 34
49 51 50 47 48 48 48 48 48 48 47 46 45 43 42 42 42 42 42 41 39 36 34 33 31 29 28 26 25 24 23 23 25 27 28 28 29 29 30 32 33 33 34 34
50 50 49 48 49 48 48 48 48 48 47 45 45 44 43 42 42 42 41 40 38 35 33 31 30 29 28 26 25 24 24 24 25 25 27 28 29 30 29 30 31 33 34 35
50 49 48 48 48 47 48 48 48 48 46 46 45 44 43 42 42 42 41 39 36 34 32 30 30 30 28 27 25 25 25 25 26 26 27 29 29 30 30 30 31 32 33 35
49 47 47 47 47 47 48 48 48 46 45 45 45 43 43 42 41 41 39 37 34 32 31 30 29 29 29 28 26 26 25 25 26 26 27 28 30 29 30 30 32 32 32 34
47 45 46 46 46 47 47 47 46 45 44 44 44 43 42 41 40 39 37 34 33 31 31 30 29 29 29 28 27 26 27 27 27 27 28 28 30 30 30 30 32 32 33 34
45 45 45 45 45 45 46 45 44 44 43 42 42 42 41 39 38 37 35 33 32 31 31 30 29 28 28 28 27 27 27 28 28 28 29 29 30 30 30 30 31 33 33 35
43 44 44 44 44 44 45 44 43 42 41 41 40 39 38 37 36 34 33 32 31 31 30 29 28 28 28 28 27 27 27 27 28 28 29 30 30 31 32 32 32 34 35 35
42 43 43 43 43 43 42 41 40 40 39 38 37 36 35 35 34 32 31 30 30 30 29 28 27 27 28 28 27 27 27 28 28 29 30 31 32 33 34 33 33 34 35 36
40 40 40 40 40 39 38 38 38 37 37 36 36 35 34 33 31 30 30 30 30 29 28 28 27 27 27 27 27 26 27 27 28 29 31 33 34 34 35 34 33 34 35 35
37 37 38 37 37 36 36 36 36 35 35 34 34 32 31 30 30 29 29 29 28 27 27 27 26 26 26 26 26 26 27 27 27 29 32 33 34 35 36 35 35 35 35 35
35 35 35 34 34 34 33 33 33 33 32 31 30 29 28 28 28 28 27 26 26 25 25 25 24 24 24 24 25 25 26 27 27 29 32 34 35 36 36 36 36 36 36 35
32 32 31 31 31 30 30 29 29 29 29 29 27 26 26 26 26 25 25 24 23 22 22 23 23 23 23 23 24 24 25 26 26 27 31 34 36 37 37 38 38 37 36 36
28 27 27 27 26 26 26 26 26 26 26 25 23 23 23 24 23 22 21 21 21 20 20 20 20 20 20 21 22 23 24 26 26 27 30 33 35 37 38 38 38 37 37 36
25 24 24 23 23 23 23 24 24 23 22 21 21 21 20 20 20 19 18 18 18 18 18 18 18 18 18 19 20 22 23 25 26 27 30 33 35 37 38 39 38 37 37 37
22 21 21 21 21 21 22 22 21 21 20 19 19 19 18 18 17 17 16 16 15 16 16 15 16 16 16 17 19 21 22 24 24 26 29 33 35 36 37 37 38 38 38 38
20 20 19 19 20 20 20 20 20 19 18 17 17 17 17 16 16 15 14 14 13 13 13 13 13 13 14 15 17 19 22 23 24 26 28 32 35 36 36 36 37 38 38 38
19 19 18 18 19 19 18 18 17 16 15 15 15 15 15 14 13 13 11 10 10 10 10 10 10 11 12 14 16 18 20 23 25 27 29 32 33 34 35 36 36 38 38 37
17 17 17 17 17 16 16 15 14 14 13 13 13 13 13 12 11 10 9 8 8 7 7 7 7 9 11 13 15 17 19 22 24 27 30 31 32 33 34 35 36 37 36 36
16 16 16 15 14 14 13 12 11 11 11 11 11 10 10 10 9 8 7 6 5 5 5 6 7 8 10 12 14 16 19 22 25 27 29 30 31 31 32 34 34 35 36 36
14 13 12 11 11 10 10 9 9 9 9 8 8 8 8 7 6 5 4 3 3 4 5 6 7 8 11 13 15 17 20 23 25 27 28 28 29 30 32 33 34 34 34 34

GEFSNGP_500_meanwind_180.txt.gz
Wind_Speed
47 45 46 46 46 46 47 48 50 49 50 48 47 49 50 51 51 50 50 50 50 49 47 46 46 46 45 44 43 43 42 41 40 39 39 38 37 37 36 37 37 37 38 37
49 47 47 48 47 48 48 49 50 51 51 47 49 50 51 51 50 49 49 49 48 48 47 45 45 44 44 44 42 41 40 39 38 37 36 36 35 35 34 34 35 35 36 36
50 49 50 51 48 48 48 48 49 51 50 48 49 50 49 50 49 48 47 47 47 46 46 44 43 43 42 41 39 38 37 37 36 35 35 34 34 33 32 32 32 32 34 36
49 50 53 51 48 48 49 49 49 50 49 49 49 49 49 48 48 47 46 46 46 45 44 42 41 40 38 37 36 35 35 35 33 32 33 32 31 31 30 31 31 31 33 34
49 51 53 50 48 47 48 49 47 48 48 49 49 49 47 47 47 46 46 46 45 44 43 41 39 38 37 36 34 34 33 33 31 30 30 30 30 29 28 29 30 31 32 33
48 50 52 49 47 47 48 50 47 47 48 48 48 47 46 46 46 46 45 45 45 44 41 39 38 37 36 34 33 32 32 31 30 29 28 28 27 27 26 26 27 30 31 32
48 49 50 47 46 46 47 48 48 48 48 48 47 47 46 45 45 45 45 44 44 42 40 38 38 37 36 34 32 30 30 29 28 26 25 26 26 26 25 25 25 26 28 30
48 48 47 45 45 45 46 47 48 48 48 47 47 46 46 46 46 45 45 44 42 41 40 39 38 37 35 33 31 29 28 27 26 25 25 26 26 25 25 25 25 26 28 29
47 47 46 45 45 46 46 47 47 48 48 47 47 46 46 46 45 45 44 43 42 41 40 38 37 36 34 32 30 28 26 25 24 24 25 25 26 26 26 26 26 26 27 29
47 46 45 45 46 47 47 47 47 48 47 47 47 46 45 44 44 43 42 41 41 40 38 37 36 35 33 31 29 27 25 25 24 23 24 25 25 25 26 25 25 25 27 28
47 46 47 46 47 47 48 47 47 46 46 46 45 44 43 43 43 42 41 40 39 38 37 35 34 33 31 30 28 26 25 24 23 22 22 23 24 24 25 25 25 26 27 28
44 44 46 45 45 45 45 45 44 43 43 43 43 43 43 42 42 41 39 38 37 36 35 34 33 32 30 28 26 25 25 24 23 22 22 23 24 24 26 26 25 25 27 28
41 42 43 42 42 42 42 42 42 41 41 41 41 42 41 40 39 38 36 36 35 34 33 33 31 30 28 27 25 25 25 24 23 23 23 23 23 24 26 27 26 25 27 28
39 39 39 39 39 40 40 40 39 39 40 40 40 39 38 37 36 35 34 34 33 32 31 30 29 28 27 26 25 25 25 25 24 24 24 24 23 24 26 26 26 26 28 29
36 36 36 36 36 37 37 36 36 36 37 37 37 36 35 34 34 33 33 32 31 30 29 28 27 26 25 24 24 24 24 24 24 24 24 24 24 25 27 28 27 27 27 28
33 34 34 34 34 34 34 34 34 34 34 34 34 33 32 32 32 32 31 31 30 28 27 26 25 24 24 24 23 23 23 23 23 23 24 24 24 25 27 28 28 28 29 29
30 31 32 32 32 32 32 32 32 32 32 32 31 31 30 31 31 31 30 28 27 26 25 24 23 23 23 23 22 21 21 22 22 23 23 23 23 24 26 28 30 30 30 30
29 30 30 30 30 30 30 31 31 31 30 29 29 29 29 30 29 28 27 26 25 24 23 22 21 21 21 21 20 19 20 20 21 21 22 22 23 24 26 27 30 31 31 30
27 27 27 28 29 28 28 28 27 26 26 26 27 27 27 26 26 25 24 23 22 21 20 20 19 18 18 17 17 17 18 19 20 21 21 22 23 24 26 28 29 31 31 31
25 26 26 26 25 24 23 23 23 24 24 24 24 23 23 23 23 21 20 19 19 19 18 18 17 15 14 14 15 16 17 18 20 21 22 23 24 24 27 28 30 31 31 31
23 23 22 21 21 21 21 21 21 21 21 21 21 20 20 20 20 19 18 18 18 17 17 16 14 14 13 13 14 15 16 18 20 22 23 24 25 26 28 29 31 31 31 31
19 19 19 18 18 18 19 19 19 19 19 19 19 19 19 18 18 18 18 17 17 16 16 15 13 13 13 13 13 15 16 17 19 22 23 24 25 26 28 30 31 31 32 32
17 17 17 16 17 17 18 18 18 18 18 18 18 17 17 17 17 17 17 16 16 15 14 13 13 12 11 11 12 13 15 17 19 22 23 24 25 27 28 30 32 32 32 33
16 16 16 16 16 16 17 17 17 17 17 17 17 16 16 16 16 15 13 13 12 11 11 11 11 10 9 9 10 12 14 16 19 21 23 24 26 27 29 31 32 33 33 32
14 14 14 14 15 15 15 16 16 16 16 16 15 15 15 14 13 11 10 10 9 8 7 7 7 7 8 9 10 11 14 16 19 21 24 25 26 28 30 31 31 32 32 32
13 13 13 13 13 13 13 14 14 14 14 14 13 13 12 11 9 8 7 6 5 5 5 5 6 7 8 9 10 12 14 16 19 22 24 26 27 29 30 31 32 32 32 31
12 12 11 11 11 11 11 11 10 10 10 9 9 8 8 8 6 4 3 3 3 3 4 5 6 7 9 10 11 14 16 17 20 23 26 28 29 29 30 31 31 31 31 30

GEFSNGP_500_meanwind_186.txt.gz
Wind_Speed
49 49 49 50 49 49 50 51 52 51 50 48 48 49 50 51 52 53 54 55 55 55 55 55 54 55 54 54 54 53 53 52 50 50 49 48 46 44 43 42 40 39 39 38
49 49 49 50 50 50 51 52 52 52 51 48 49 50 50 52 53 54 54 54 54 54 54 54 54 54 53 53 53 52 50 49 48 47 45 45 43 41 41 39 38 37 37 36
49 48 51 53 50 51 52 51 52 53 51 50 50 50 51 52 53 53 53 53 54 54 54 54 54 53 52 52 51 50 48 46 45 44 44 43 42 40 38 36 35 35 37 36
47 48 51 51 49 50 51 51 51 51 50 50 50 50 50 52 52 53 53 54 54 54 53 53 53 52 52 51 50 48 46 46 45 43 41 40 38 36 35 33 33 34 34 33
48 49 52 49 47 47 49 50 49 50 49 49 49 49 50 51 52 53 54 54 54 53 53 52 51 51 50 49 48 47 45 44 42 41 39 37 35 33 32 31 31 32 31 30
48 50 51 48 46 46 48 49 47 48 49 49 50 51 50 51 52 53 53 53 53 53 52 51 50 50 49 47 46 45 43 41 40 39 37 35 32 30 29 29 29 29 28 26
46 48 49 47 46 46 48 49 48 48 49 50 50 51 52 52 53 53 52 52 52 52 51 50 50 49 47 46 44 43 41 39 38 37 35 32 30 29 28 27 26 25 24 23
43 45 46 45 45 45 47 48 49 50 50 50 51 51 51 51 51 50 50 51 51 50 49 48 47 46 45 43 42 41 39 38 36 35 33 30 28 27 26 25 23 22 22 21
44 45 44 45 45 46 48 49 50 50 50 51 50 50 50 49 49 49 49 49 48 47 47 46 45 43 43 41 41 39 37 35 33 32 30 28 26 24 23 22 21 20 19 20
44 44 44 45 46 46 47 48 48 49 50 50 49 48 48 47 46 46 46 46 46 46 45 43 42 41 40 39 38 37 35 33 31 29 27 25 24 23 21 19 18 18 18 19
44 43 45 45 45 45 46 47 47 47 46 46 45 45 45 45 45 45 45 45 45 44 42 41 40 39 38 37 36 35 32 29 28 26 25 23 23 21 20 18 18 18 19 19
43 43 45 45 45 46 46 46 46 45 44 43 44 43 43 43 44 43 43 43 42 41 40 39 38 37 35 35 34 32 29 28 26 25 23 22 21 20 19 18 18 18 20 20
42 42 43 43 43 43 42 42 42 42 42 42 42 42 42 42 42 41 41 40 39 38 37 37 35 33 32 31 30 29 27 26 25 23 22 21 20 20 18 17 18 19 20 20
38 39 40 40 40 39 39 39 38 39 40 40 40 40 40 40 39 39 38 37 36 36 35 34 32 31 30 29 28 26 25 23 22 21 20 20 20 19 19 18 18 19 21 21
34 35 36 36 37 37 37 37 37 37 37 36 36 37 37 37 37 36 35 35 35 34 33 31 30 29 29 28 25 23 22 20 19 19 19 19 20 19 19 18 18 19 20 21
32 32 33 33 33 33 33 33 34 34 34 34 34 35 35 35 34 34 33 33 32 31 30 29 28 28 27 25 23 21 20 19 18 17 18 19 20 20 19 18 18 18 20 21
30 30 31 31 30 30 30 31 31 32 33 34 35 35 34 33 32 31 31 30 30 29 28 27 27 26 24 23 21 20 19 18 17 17 17 18 19 18 18 18 18 18 20 21
28 28 29 29 29 29 30 30 31 31 32 32 32 31 31 30 29 29 29 29 29 28 27 27 26 24 23 21 20 18 18 17 17 16 16 17 18 17 16 17 18 18 20 22
27 28 28 28 28 29 29 28 28 28 28 28 28 27 27 26 27 27 26 27 26 26 25 25 23 22 21 20 18 17 16 16 16 15 15 16 17 17 17 17 17 18 21 22
27 27 27 26 27 27 26 26 26 26 26 26 26 25 24 24 24 24 24 24 24 23 22 22 20 19 18 17 16 16 15 15 14 14 14 15 16 17 17 17 17 19 20 21
25 25 24 24 24 24 23 23 23 23 23 23 23 23 23 22 22 22 21 22 21 21 20 19 18 16 16 15 14 14 13 13 13 13 14 15 16 17 18 18 19 20 21 22
22 21 21 21 21 21 21 21 21 21 21 22 22 21 21 20 20 20 20 20 19 18 17 16 15 14 14 13 13 13 13 12 12 13 14 15 17 18 18 19 20 20 21 22
19 18 18 19 19 19 19 19 19 20 20 20 20 19 19 19 19 19 18 18 17 16 14 13 12 12 12 12 12 12 11 12 13 13 14 16 17 18 19 19 20 20 21 23
17 17 17 17 17 17 17 18 18 19 19 19 18 18 18 18 17 17 16 16 15 14 12 11 11 10 10 9 10 11 11 12 13 13 15 17 18 19 19 20 20 21 23 24
16 16 17 17 17 16 16 17 17 17 17 17 16 16 16 16 15 15 14 13 12 10 9 9 8 8 8 8 9 10 11 12 13 13 15 17 19 19 20 21 23 23 24 25
16 16 16 16 15 15 15 15 15 14 14 13 13 14 14 13 12 12 11 9 8 7 6 5 5 5 6 8 9 10 11 12 13 14 16 17 19 20 21 23 24 24 25 25
14 14 14 14 14 14 13 13 12 11 11 11 12 12 11 10 9 8 7 6 4 3 3 3 4 5 6 8 9 10 12 13 14 16 16 18 19 21 22 24 25 25 26 25

GEFSNGP_500_meanwind_192.txt.gz
Wind_Speed
45 46 45 45 45 45 46 46 47 46 46 44 44 45 45 46 47 48 48 50 50 51 52 52 53 54 54 55 55 56 56 56 55 55 55 55 54 53 52 51 49 48 47 45
46 46 47 47 46 47 47 46 47 47 46 44 45 46 47 47 47 48 49 50 50 51 52 52 53 53 54 54 55 55 55 55 54 54 53 52 52 51 50 48 46 45 43 43
46 46 47 49 47 47 47 46 46 46 45 45 46 46 47 48 48 49 50 50 50 51 51 52 53 53 53 53 53 53 53 53 53 53 51 50 49 47 46 45 43 41 40 39
44 45 47 46 45 45 46 46 46 46 46 46 47 47 47 48 49 49 49 50 50 51 52 52 53 53 53 52 53 52 52 52 52 50 48 47 46 44 42 41 39 38 37 36
42 44 46 44 42 43 45 45 45 46 46 46 47 47 48 48 48 48 49 50 51 51 51 52 51 51 51 52 52 51 51 50 49 47 45 43 42 41 40 38 36 35 33 33
40 42 43 42 42 43 44 45 44 45 46 46 47 47 46 46 46 47 49 49 50 50 50 50 50 51 51 51 50 49 49 47 46 44 43 41 39 38 36 35 33 32 31 30
39 40 41 40 40 41 42 43 43 43 44 44 45 45 45 45 46 47 47 48 48 49 49 49 49 50 49 49 48 47 46 44 43 42 42 40 38 36 34 32 29 28 27 26
38 39 38 37 39 40 41 41 41 41 42 43 43 43 44 45 46 47 47 48 48 48 48 48 48 48 47 46 45 44 43 42 41 41 39 38 36 33 31 29 26 25 23 22
38 38 37 36 36 38 38 39 40 41 42 43 44 44 45 46 46 47 47 47 47 48 47 47 48 47 46 45 44 43 42 41 40 38 37 35 33 30 28 26 24 22 21 19
35 36 36 36 36 37 38 38 39 41 41 42 42 43 44 44 45 45 45 45 46 46 46 46 46 45 44 43 42 41 40 39 38 36 34 32 30 27 25 22 21 19 18 18
34 34 35 35 36 37 38 38 39 40 41 42 42 41 41 41 42 42 42 42 43 43 43 43 43 42 42 41 40 39 38 37 35 33 31 29 27 25 22 19 18 17 17 17
34 34 35 35 35 36 37 39 40 40 41 41 42 41 41 41 41 41 40 41 41 41 41 41 40 40 40 39 39 37 35 33 31 29 27 25 23 21 19 17 16 16 15 16
34 34 34 35 35 35 36 38 39 40 40 40 41 41 42 42 41 40 40 40 40 40 40 39 38 38 37 36 35 33 31 29 28 26 24 22 20 18 17 17 17 16 15 15
32 33 33 33 34 35 35 36 37 37 37 38 38 39 39 39 40 40 40 40 39 39 38 37 36 34 33 33 31 29 28 26 24 22 21 20 18 16 16 16 17 16 15 15
30 31 32 33 34 34 35 35 35 34 34 35 35 36 36 37 37 37 37 37 36 35 34 33 32 31 30 29 27 26 25 23 22 21 20 18 16 15 15 16 16 16 16 16
28 29 30 31 32 32 32 31 31 31 31 32 32 33 33 33 33 33 32 32 32 31 30 30 30 29 27 26 24 23 22 21 20 19 17 15 14 14 15 16 16 16 16 16
27 27 27 27 27 27 27 27 27 28 28 29 29 29 29 29 28 28 29 29 28 28 28 27 27 26 24 23 22 21 19 18 18 18 16 16 15 15 16 16 16 16 16 16
24 24 24 25 24 24 25 25 25 27 28 28 28 28 27 27 27 26 26 26 26 26 25 24 23 22 21 21 20 19 18 18 18 17 16 16 15 15 15 15 15 15 16 16
23 23 24 24 24 24 24 25 25 26 26 26 26 25 26 25 25 24 23 23 22 22 22 22 22 21 20 20 19 18 17 17 17 16 15 14 14 14 14 15 15 15 15 16
21 22 22 22 23 23 23 24 24 24 24 24 23 23 22 21 20 20 20 20 20 20 20 20 20 20 19 18 17 16 16 16 15 15 14 13 13 13 13 14 14 15 16 16
20 20 21 21 21 21 21 22 22 22 22 22 21 20 19 18 18 17 18 18 18 18 18 18 18 18 17 16 15 14 14 14 14 13 13 13 13 13 13 13 14 15 16 16
19 18 18 19 19 20 20 21 21 21 20 19 19 18 17 16 16 17 17 17 17 17 17 16 16 15 14 13 13 13 12 12 12 12 12 13 13 14 14 14 14 15 16 17
17 17 17 18 18 19 19 20 20 19 18 18 17 16 16 15 16 16 17 17 16 16 15 15 14 13 12 11 11 11 11 11 11 11 11 12 13 14 15 15 16 16 17 17
16 16 17 17 17 17 18 18 18 17 16 16 15 14 14 14 14 14 14 15 15 14 13 12 11 10 10 9 10 10 11 11 11 11 11 13 14 15 16 16 17 17 18 18
16 16 16 16 16 16 16 16 15 15 15 15 14 14 13 12 12 12 12 12 11 11 10 9 8 7 7 8 8 9 10 11 11 12 12 14 15 16 16 17 17 18 18 19
14 14 15 15 15 15 14 14 14 14 13 13 12 12 11 11 10 10 10 9 8 7 6 5 4 4 5 5 7 8 10 11 11 12 13 15 16 16 17 17 17 18 18 19
13 13 13 13 13 13 13 13 12 11 11 10 10 10 9 8 8 8 7 6 5 4 3 2 2 3 3 4 6 8 9 10 11 12 13 15 16 16 17 18 19 19 19 20

GEFSNGP_500_meanwind_198.txt.gz
Wind_Speed
45 45 45 46 47 47 47 47 48 47 47 46 46 47 47 48 48 48 48 49 49 49 49 50 50 51 52 54 54 55 56 56 56 57 57 57 57 58 59 59 58 57 55 55
45 45 46 46 47 47 47 47 48 48 48 47 48 48 49 49 49 49 49 50 50 50 50 51 51 52 53 54 55 55 55 55 56 56 56 56 56 56 56 55 54 53 52 52
46 47 47 48 46 46 47 47 47 48 48 48 49 49 49 50 50 51 51 51 51 51 51 51 52 53 53 54 55 55 55 55 56 56 55 55 55 54 53 52 51 49 49 48
46 47 49 48 47 47 47 47 48 48 48 49 50 50 49 50 50 51 51 51 51 51 51 52 53 54 54 54 55 55 55 55 55 55 54 53 52 51 50 49 48 47 46 44
43 45 47 46 45 46 47 48 47 48 48 48 49 49 48 48 49 49 50 50 51 51 51 52 53 54 54 54 54 54 53 54 53 53 52 50 49 48 47 46 45 43 42 41
40 41 42 43 43 44 46 46 46 47 47 47 48 48 47 47 48 49 50 50 51 51 51 52 53 53 53 52 52 51 51 51 51 50 49 48 47 46 45 44 43 42 40 38
37 38 38 39 40 41 42 43 44 45 45 45 46 47 46 47 47 48 49 50 50 50 51 51 51 51 50 49 48 49 49 49 49 48 47 47 46 45 43 42 41 39 37 35
35 36 35 35 37 38 39 40 41 41 42 43 43 44 44 44 45 46 46 47 47 48 48 49 49 48 47 47 46 47 48 48 47 46 46 45 44 42 41 40 38 36 33 32
35 34 35 35 36 37 38 39 39 40 40 40 41 41 42 43 44 44 45 46 47 47 47 47 48 47 47 46 46 46 46 45 44 43 43 43 42 40 39 37 35 33 31 29
33 33 34 35 35 36 37 37 38 39 39 39 40 40 40 41 42 42 44 45 46 47 47 47 47 47 46 46 46 46 45 44 42 41 41 40 39 37 35 34 32 30 28 26
32 32 34 34 34 35 36 36 37 38 39 39 39 40 40 40 40 42 43 44 46 46 46 46 46 46 45 45 44 44 43 41 40 39 39 38 36 34 32 30 29 27 24 23
33 33 34 34 34 35 35 36 37 38 38 39 39 40 40 40 41 42 43 44 44 44 44 44 44 43 42 42 41 41 40 39 38 37 36 35 33 31 30 28 27 25 23 22
32 33 34 35 34 34 35 35 36 36 36 37 38 39 39 40 40 41 41 41 40 40 40 41 40 40 39 39 38 38 36 35 35 34 34 33 31 28 26 26 25 23 21 20
31 31 32 33 34 34 35 35 35 35 35 36 37 38 38 38 38 38 38 37 37 36 36 37 37 36 36 35 35 34 33 33 32 31 30 28 26 25 23 22 21 20 18 17
28 29 30 30 31 33 33 34 33 33 34 34 35 35 36 36 36 35 35 35 34 34 34 34 34 34 34 33 32 32 31 30 28 26 25 24 22 21 20 19 18 17 16 15
26 26 27 28 29 30 30 30 31 32 32 32 33 33 34 34 34 33 34 34 34 34 34 33 32 32 31 31 30 29 27 25 24 22 21 20 19 18 17 16 15 14 14 13
25 25 26 27 27 28 28 28 28 29 29 30 30 30 31 31 31 31 32 33 33 33 32 31 30 28 27 27 26 25 24 23 22 21 20 18 17 16 15 14 13 13 13 13
25 25 26 26 26 26 26 26 26 26 26 26 27 28 28 28 28 28 28 28 28 28 27 26 25 24 24 23 23 22 21 21 20 20 18 16 15 14 13 13 13 13 13 13
24 24 25 25 25 24 24 24 24 25 25 25 26 25 25 25 25 25 24 24 25 24 23 23 22 22 22 22 21 20 19 19 18 18 17 15 14 13 12 12 12 13 13 13
22 23 23 24 24 23 24 24 23 23 23 23 23 23 23 23 23 24 24 24 23 23 22 22 22 21 21 20 19 18 17 16 16 16 14 13 13 12 12 12 11 12 13 13
21 21 21 22 22 21 21 22 22 22 22 22 22 22 22 23 23 24 23 23 22 22 21 21 20 19 18 17 16 16 15 14 14 14 12 12 12 12 11 11 11 11 12 12
18 19 19 19 20 20 20 21 21 21 21 22 22 22 22 23 23 22 22 21 21 20 20 19 18 17 17 16 16 15 14 13 13 12 12 11 11 11 11 11 11 11 11 11
17 17 17 18 18 18 19 19 19 20 21 21 21 22 22 21 21 20 19 19 20 19 18 17 16 16 15 15 15 15 14 13 12 12 12 11 11 10 10 10 10 10 10 11
16 16 16 17 17 17 18 18 19 19 20 20 20 19 19 18 17 17 17 17 16 16 15 15 14 14 14 14 13 13 12 12 11 11 11 11 10 10 10 10 10 10 11 12
15 16 16 16 16 17 17 17 18 18 17 17 17 16 16 16 15 15 15 14 14 13 13 12 12 12 12 12 11 11 11 10 10 10 10 10 9 10 10 10 10 10 11 13
15 15 15 15 16 16 16 16 16 15 15 14 14 14 13 13 12 12 12 12 11 11 10 10 10 10 10 9 9 9 9 9 9 9 10 10 10 10 10 11 11 12 13 13
15 15 15 15 15 15 15 14 14 13 12 12 11 10 10 9 9 8 8 8 8 7 7 7 6 6 6 6 5 6 7 8 8 9 10 11 11 11 12 12 13 14 15 15

GEFSNGP_500_meanwind_204.txt.gz
Wind_Speed
44 44 43 43 43 44 46 46 46 44 43 42 43 43 43 43 42 42 42 42 42 43 44 44 45 46 48 49 51 52 52 53 54 54 55 56 56 56 57 56 56 55 55 55
44 44 44 44 43 43 44 45 46 45 45 43 43 43 43 43 44 44 44 44 44 44 45 46 47 48 49 50 51 51 52 52 53 54 55 55 56 56 55 55 55 54 54 52
41 43 44 45 43 43 43 43 44 45 44 44 44 44 44 44 44 45 45 45 45 46 46 47 48 49 50 50 50 51 52 52 53 54 54 55 55 54 54 53 53 52 51 50
39 41 43 44 43 42 43 43 43 44 44 45 46 46 46 46 46 46 47 47 47 47 48 48 49 50 50 50 51 51 52 52 53 53 54 53 53 52 52 51 51 50 48 48
37 39 41 42 41 41 42 43 43 44 45 46 47 47 47 46 46 47 47 47 47 48 48 48 49 49 49 50 51 51 51 52 52 52 52 51 51 50 49 48 48 46 45 44
35 36 38 38 39 39 41 42 42 43 44 44 45 46 45 45 45 45 46 46 46 47 47 48 48 49 49 49 49 50 50 51 50 49 48 48 47 47 46 45 44 42 41 41
33 34 35 35 36 37 38 39 40 41 41 42 43 43 44 44 44 44 44 45 45 46 46 46 47 47 48 49 49 49 49 48 47 46 46 45 44 44 43 42 41 40 39 39
31 32 32 33 34 35 36 36 37 37 38 39 40 40 41 42 42 43 43 44 44 44 44 45 46 46 47 47 47 47 47 46 45 44 44 43 42 41 40 39 39 39 38 38
31 31 31 31 33 34 35 36 36 36 36 36 37 38 39 40 41 42 42 43 43 43 43 44 45 45 45 45 45 45 44 44 43 42 41 40 39 38 38 38 38 37 37 36
29 29 30 31 31 32 33 34 34 35 35 35 35 36 38 39 39 40 40 41 41 42 42 42 43 43 43 43 43 43 43 42 40 39 38 38 37 37 36 36 36 35 35 34
28 29 29 30 30 30 31 32 32 33 33 33 34 35 36 36 37 37 38 39 39 40 40 41 41 41 42 42 42 41 40 39 38 38 38 37 37 36 36 35 34 34 33 31
26 27 27 27 28 29 30 30 30 31 32 32 33 33 34 34 35 36 37 37 38 38 39 40 40 40 40 39 39 38 38 37 38 37 37 36 35 35 34 33 31 30 29 28
25 24 25 25 27 27 28 29 29 30 30 31 33 34 34 35 36 36 37 37 38 38 38 39 39 39 38 38 37 37 37 37 36 36 35 35 34 33 32 30 28 28 27 26
24 23 23 24 24 25 27 28 29 29 30 31 33 34 35 35 35 36 36 36 37 37 37 37 37 37 37 37 37 36 36 35 34 33 33 32 31 30 30 29 27 27 26 26
23 23 24 24 24 24 25 25 26 27 28 30 31 32 33 33 33 34 34 34 35 35 35 35 35 35 35 35 35 34 33 32 31 30 29 29 28 28 27 27 26 25 23 22
22 23 23 24 24 24 25 25 25 26 27 28 29 30 30 30 31 31 32 32 33 33 33 34 34 34 33 33 32 31 30 29 28 28 26 26 26 25 24 23 22 21 19 17
22 22 23 24 24 24 24 25 26 26 26 27 28 28 29 29 29 29 30 31 31 31 31 31 31 31 31 30 29 29 28 27 26 25 24 23 23 22 20 18 17 16 15 14
22 22 23 23 24 24 24 24 25 25 25 25 26 26 27 27 27 28 28 28 28 28 28 28 28 27 27 27 26 26 25 24 23 22 20 19 18 17 16 15 14 14 13 12
20 20 21 21 22 22 23 22 23 23 23 24 24 25 25 25 25 25 25 25 25 25 25 26 25 25 24 23 23 21 20 19 19 18 18 17 17 16 15 14 13 12 12 11
17 17 18 19 20 20 20 20 20 20 20 21 21 22 22 22 23 23 23 24 24 24 24 24 23 22 21 21 20 19 18 18 17 17 17 16 15 15 14 13 13 12 11 11
15 15 16 17 17 17 17 17 17 17 18 18 19 19 20 20 21 22 22 23 23 23 23 22 21 20 20 19 18 18 18 18 17 17 16 15 14 13 13 13 12 12 12 11
13 14 14 14 14 15 15 15 16 16 17 17 17 18 19 19 20 21 21 21 21 21 21 20 20 19 18 17 17 17 17 16 16 15 14 13 13 13 12 12 12 12 12 11
12 12 12 12 13 14 14 15 15 15 15 16 16 17 17 18 19 19 19 19 19 19 19 18 18 17 16 16 16 15 15 14 13 13 13 12 11 11 11 11 10 11 12 12
11 11 11 12 12 13 13 14 15 15 15 16 16 16 17 17 17 17 16 16 16 16 16 15 15 15 15 14 14 14 13 12 12 11 10 10 10 9 9 9 9 10 11 12
11 11 11 11 12 12 13 14 14 15 15 16 16 15 15 15 14 14 14 13 13 13 13 13 13 13 12 12 12 12 11 11 10 10 9 9 9 8 8 9 10 11 12 13
12 12 12 12 12 13 13 13 14 14 14 14 14 13 13 12 12 11 11 11 11 10 10 10 10 10 10 10 10 9 9 9 9 9 9 9 9 8 8 9 11 13 14 15
12 12 12 12 12 12 13 13 13 13 12 12 12 12 11 10 10 9 9 9 9 8 8 8 7 7 7 7 7 7 8 8 9 9 10 9 9 9 10 11 13 15 16 16

GEFSNGP_500_meanwind_210.txt.gz
Wind_Speed
42 44 44 43 43 43 44 45 45 44 43 43 43 43 42 42 42 42 43 43 43 43 43 43 44 45 45 46 47 48 48 49 49 50 51 52 54 54 54 54 54 54 53 53
39 41 42 43 43 43 44 44 45 44 44 43 43 43 43 42 42 42 43 43 43 43 44 44 44 45 45 46 47 48 48 49 50 51 52 53 53 53 53 53 53 54 53 52
38 38 40 42 41 42 42 43 43 44 43 44 44 44 44 44 43 43 43 43 43 44 44 45 46 46 46 47 48 48 49 49 50 51 51 52 52 52 53 53 53 53 52 51
36 36 39 40 39 40 40 42 43 44 44 45 45 45 45 45 45 44 44 44 44 44 45 45 46 46 47 48 48 49 49 49 50 50 51 51 51 52 52 52 52 51 49 49
35 37 37 38 38 38 39 40 41 42 43 43 44 45 45 45 45 45 44 44 44 44 45 45 46 46 47 47 48 48 48 49 49 50 50 50 51 51 50 50 50 49 48 49
35 36 36 36 36 37 38 39 40 41 42 42 42 43 43 44 44 44 43 43 43 43 44 44 45 45 46 46 47 47 47 48 48 49 49 49 49 48 48 48 48 47 47 47
34 35 35 34 35 35 37 38 38 39 40 41 41 41 42 42 43 43 43 43 43 43 43 43 44 44 45 46 46 46 46 46 47 47 47 47 47 47 46 46 45 44 44 44
34 34 34 32 34 35 35 36 37 38 39 40 40 40 40 41 42 42 42 43 43 42 42 43 44 44 45 45 45 44 44 45 45 45 45 45 45 45 45 44 43 43 43 43
33 33 32 32 33 34 34 35 35 36 36 37 38 39 39 39 40 40 41 42 42 42 42 43 44 44 44 43 43 43 43 44 44 45 45 45 45 45 44 43 42 42 42 41
29 30 32 32 32 33 33 33 34 34 35 35 36 37 38 38 38 38 39 40 41 42 42 43 43 43 42 42 43 43 43 44 44 45 45 45 45 44 44 43 42 41 40 39
27 28 29 31 31 32 32 32 33 34 34 35 35 36 36 37 37 38 38 39 40 40 41 41 41 41 41 42 42 42 43 43 43 44 44 44 44 43 42 41 40 39 38 37
26 26 27 27 29 29 29 30 30 31 32 33 34 35 35 36 36 37 37 38 38 39 40 40 40 40 41 41 42 42 42 42 42 42 42 42 40 39 38 38 37 37 36 35
26 25 25 25 26 26 27 28 29 30 30 31 33 33 34 35 35 36 37 37 37 38 38 38 39 40 40 41 41 40 41 41 41 40 40 39 37 36 36 36 36 36 35 34
25 25 25 24 24 25 26 27 28 29 30 31 32 33 33 34 34 35 36 36 36 37 37 38 38 38 38 38 39 39 39 39 39 39 38 37 36 35 34 34 34 34 33 31
24 24 24 24 25 26 26 27 27 28 29 30 30 31 31 32 33 34 34 35 35 35 35 36 36 36 37 38 38 38 38 38 37 37 36 35 34 33 33 33 32 32 30 29
24 25 25 25 26 26 27 27 27 28 29 29 29 30 31 32 32 33 33 34 34 34 34 34 34 34 35 36 37 37 37 37 36 35 34 33 33 32 32 31 31 30 29 28
22 22 23 24 25 26 27 27 28 28 28 28 29 29 30 31 31 31 32 32 32 32 32 32 32 33 34 34 35 35 35 34 33 33 32 31 31 30 29 28 27 26 25 24
20 21 22 23 23 24 24 25 25 26 26 27 28 28 29 30 30 30 31 31 31 31 31 32 33 33 33 33 33 33 32 31 30 30 29 29 28 27 26 25 24 23 21 20
19 20 20 21 22 22 22 23 23 24 24 25 25 26 27 27 28 28 29 29 30 31 31 32 32 32 32 31 31 29 28 27 26 26 25 25 24 23 23 22 21 19 18 16
17 18 19 20 21 21 22 21 22 22 22 22 22 23 23 23 24 25 25 26 27 27 28 29 29 29 29 28 27 26 24 23 23 22 22 21 20 19 18 18 17 15 14 12
16 16 17 18 19 20 20 20 20 19 19 20 20 20 21 22 23 23 24 24 25 26 26 26 26 26 25 24 23 23 22 21 21 20 19 18 17 16 16 15 14 12 11 10
15 15 15 16 17 17 18 18 17 17 18 18 18 18 19 20 21 22 22 23 23 24 24 24 24 23 23 22 22 21 20 19 18 18 17 16 15 14 13 12 12 11 10 10
15 15 15 15 15 15 15 15 15 15 15 16 16 17 18 19 20 21 22 22 22 22 22 21 21 21 21 20 19 18 17 16 15 15 14 13 12 12 11 11 10 10 9 9
14 14 14 14 14 13 14 14 14 14 14 15 16 17 18 18 19 20 20 20 20 20 19 19 19 18 17 16 15 14 13 13 12 12 11 10 10 9 9 9 8 8 8 8
13 13 13 12 12 12 13 13 14 14 14 15 15 16 16 17 17 16 16 15 16 16 16 15 15 14 13 12 12 11 11 11 10 9 9 8 8 8 7 8 8 8 8 8
12 12 12 12 12 12 12 13 14 14 14 14 15 15 15 14 13 12 12 12 12 12 12 12 11 10 9 8 8 8 9 9 9 8 8 8 8 8 8 8 8 8 8 9
12 12 12 12 13 13 13 14 14 14 14 14 13 13 12 11 10 10 10 10 10 10 9 8 7 6 5 5 5 5 6 6 6 7 8 8 9 9 9 9 9 9 10 10

GEFSNGP_500_meanwind_216.txt.gz
Wind_Speed
35 36 38 39 40 42 43 43 43 43 43 41 40 40 40 39 39 39 39 39 39 39 39 39 39 40 40 41 41 42 43 43 44 45 46 47 47 48 48 49 49 50 51 51
34 33 34 37 39 40 41 42 42 41 41 40 39 39 39 39 39 39 39 39 39 39 39 39 39 40 40 41 42 42 43 44 45 45 46 47 47 48 48 49 49 50 51 51
33 33 33 35 37 38 39 39 40 40 39 39 39 39 40 39 39 38 37 38 38 39 39 40 40 40 40 41 42 43 44 45 45 46 46 47 47 48 49 49 50 51 52 52
29 31 33 33 34 35 36 37 38 39 38 39 39 39 39 39 38 38 38 37 37 38 40 40 41 41 42 42 43 44 44 45 46 46 46 47 47 48 49 50 51 51 51 52
30 31 32 32 32 33 34 35 36 38 39 40 40 40 40 40 40 40 39 39 38 39 39 40 41 42 43 43 44 44 45 45 45 46 46 46 47 48 49 50 50 50 51 51
32 32 32 31 31 32 33 34 35 36 38 39 40 40 39 40 40 40 40 40 40 40 41 41 41 42 43 44 44 45 45 45 45 45 45 46 46 47 48 49 49 49 49 49
31 32 32 31 31 31 33 33 33 34 36 37 39 39 38 39 39 40 41 41 41 41 41 42 42 43 43 43 44 44 44 45 45 45 46 46 47 47 48 48 47 47 47 47
31 31 31 30 31 31 31 31 32 33 33 34 36 37 38 38 39 39 40 41 41 42 42 42 43 43 43 43 43 43 44 44 45 46 46 46 46 46 46 46 46 46 45 44
29 29 29 30 31 31 31 31 31 32 32 34 35 36 37 38 39 39 39 40 40 40 41 41 41 41 41 42 42 43 43 44 44 45 45 45 45 45 45 45 45 45 44 43
28 28 29 29 30 30 30 31 31 31 32 33 34 34 35 36 38 39 40 40 40 40 40 40 41 42 42 42 42 42 42 43 43 43 43 43 44 44 45 45 44 43 42 41
25 27 28 30 30 29 30 30 31 32 32 32 33 33 34 35 36 37 38 39 39 40 41 41 41 41 41 42 42 42 42 42 42 42 41 42 43 43 43 43 43 42 41 40
23 24 26 27 28 29 29 30 30 31 32 32 33 33 33 34 35 36 36 37 38 38 39 40 40 40 41 41 41 41 41 41 41 41 41 41 42 42 42 42 42 41 39 39
22 23 24 25 26 26 27 27 28 29 29 29 30 31 32 33 33 34 34 35 35 36 37 39 39 39 40 40 40 40 40 39 39 39 40 41 41 41 41 41 40 39 38 38
21 21 22 23 24 24 25 26 27 28 29 29 29 30 31 32 32 33 33 34 35 36 36 37 37 38 38 38 39 39 39 39 40 40 40 41 41 40 39 38 37 37 37 36
20 21 21 22 23 24 25 25 26 27 28 28 29 30 31 32 32 33 33 33 34 35 36 36 36 37 37 38 38 39 39 40 40 40 40 40 39 38 37 36 35 35 35 35
20 21 21 22 23 24 25 25 25 25 26 27 28 29 30 31 31 31 32 33 33 34 34 35 35 36 36 37 37 38 39 39 39 39 38 38 37 36 35 35 34 34 34 33
19 20 21 21 22 23 24 24 25 26 26 27 28 28 29 29 29 30 30 31 32 32 32 32 32 33 34 34 35 35 35 36 36 36 36 35 34 34 33 33 33 33 32 30
17 18 19 20 21 22 23 23 24 25 26 26 27 27 28 28 29 29 30 30 30 30 30 31 31 31 32 32 32 32 32 32 32 32 31 31 31 30 30 30 30 29 28 27
15 16 17 18 19 20 20 21 22 23 24 25 25 25 26 27 27 27 28 28 28 29 29 30 31 31 31 31 32 31 31 30 30 29 29 28 28 27 27 26 26 24 23 22
15 15 16 17 18 19 19 20 21 21 22 22 23 23 24 24 25 25 25 26 27 27 28 29 30 30 30 30 30 29 28 27 27 26 25 25 24 23 22 21 20 19 19 18
15 16 16 17 18 19 19 19 19 20 20 20 21 21 21 22 22 22 22 23 23 24 25 25 26 26 26 26 25 24 23 23 22 21 20 20 19 19 18 17 16 16 15 14
15 15 16 17 17 18 18 18 18 18 18 18 18 18 18 19 19 19 19 20 20 21 21 21 21 22 22 22 21 21 20 19 19 18 17 17 16 16 15 15 14 13 12 11
14 14 14 15 15 15 15 15 15 15 15 16 16 16 16 17 17 17 17 18 18 19 19 19 19 19 18 18 18 18 18 18 17 17 16 15 15 14 13 13 12 11 11 10
13 13 13 13 13 13 13 13 13 13 13 14 14 14 14 15 15 16 16 16 17 17 17 17 16 16 15 14 14 14 14 14 14 14 13 13 13 12 11 11 10 10 10 9
11 11 11 12 12 12 12 12 12 12 12 13 13 13 13 14 14 14 14 15 15 14 14 14 13 12 12 11 11 11 11 10 11 11 11 10 10 10 9 9 9 9 9 9
9 9 10 10 11 11 11 12 12 12 13 13 13 13 13 12 12 12 12 12 11 11 11 10 10 9 9 9 8 8 8 8 8 8 8 8 8 7 7 8 9 9 9 9
9 9 9 9 10 10 11 11 12 13 13 13 12 12 12 12 11 11 11 10 9 9 8 8 7 7 6 6 5 6 6 5 5 5 6 6 6 6 7 8 9 9 10 10

GEFSNGP_500_meanwind_222.txt.gz
Wind_Speed
37 36 36 37 39 41 43 44 44 42 42 41 40 39 38 38 39 39 39 39 39 40 41 41 41 42 42 42 43 43 44 44 44 45 45 45 45 45 45 45 46 46 47 48
35 35 35 35 37 39 41 42 42 42 42 41 40 40 40 39 40 40 40 40 40 41 41 42 42 42 43 43 43 44 44 44 45 45 46 46 46 46 46 46 47 47 48 49
34 35 35 35 36 37 39 40 40 40 40 41 41 40 40 40 41 41 41 41 41 41 41 41 41 42 43 43 44 45 45 45 46 46 46 47 47 47 47 47 48 48 49 49
30 33 35 35 34 36 37 37 38 39 39 40 40 40 40 40 39 40 40 40 40 40 40 41 41 42 42 43 44 44 45 45 45 46 47 47 47 47 48 48 48 48 49 49
29 31 33 33 33 33 35 36 36 37 37 38 39 39 39 39 38 38 39 39 39 40 40 41 41 42 43 43 43 43 44 45 45 46 47 47 47 48 47 47 48 49 49 50
29 30 31 32 32 31 32 34 34 34 35 37 37 37 36 37 37 37 38 38 39 39 40 41 42 42 42 43 44 44 45 45 45 46 46 46 46 46 47 47 48 49 50 50
29 30 31 31 31 31 31 31 32 33 33 35 36 35 36 36 37 38 38 38 39 40 40 41 42 42 43 43 44 45 45 45 45 44 44 44 44 45 46 47 48 49 49 49
28 29 30 31 31 31 30 30 30 31 32 33 33 33 34 35 36 37 37 37 38 39 39 40 41 42 43 44 44 44 45 45 45 44 44 45 45 46 46 47 48 48 47 46
28 28 28 30 32 32 31 30 30 31 31 32 33 34 34 35 36 37 37 37 38 39 39 40 40 41 42 43 43 44 45 45 45 45 45 45 45 45 46 46 46 46 45 45
27 28 28 29 30 31 32 32 31 31 30 31 32 33 35 35 35 36 37 38 38 39 39 40 41 41 42 42 43 43 43 43 44 44 44 44 45 45 45 45 45 44 44 43
27 28 28 29 31 32 32 32 32 32 31 31 31 32 34 35 36 36 37 37 38 39 39 40 40 41 41 42 43 43 43 43 43 43 43 43 44 44 44 44 43 43 42 42
24 26 27 28 29 30 31 31 32 33 33 32 32 32 33 34 35 36 36 37 38 38 39 40 41 41 42 42 42 42 43 43 43 43 43 43 43 43 43 42 42 42 41 41
21 23 25 27 28 29 30 30 31 32 32 32 32 31 32 32 33 34 35 36 37 38 39 40 40 41 41 41 42 42 41 41 41 41 41 41 41 41 41 42 42 41 40 40
20 21 23 25 27 28 29 29 29 30 30 31 31 31 32 32 33 33 34 35 36 37 38 39 39 40 40 40 40 40 40 40 40 39 39 39 40 40 40 40 40 40 39 39
17 19 21 23 24 25 26 27 28 28 29 29 30 31 31 32 33 33 33 34 34 35 36 37 37 38 39 39 39 39 39 39 39 39 39 39 39 39 39 38 38 37 37 37
15 16 18 20 22 23 25 26 27 28 28 29 29 30 31 32 33 33 34 34 34 35 35 36 36 37 37 38 38 38 38 38 39 40 40 40 39 39 38 37 36 36 36 36
16 16 17 19 20 22 23 25 26 27 28 29 29 30 31 32 33 34 34 34 35 35 35 35 36 36 36 36 37 36 37 38 38 38 38 38 37 37 37 37 36 35 35 34
16 17 17 18 19 20 21 23 25 26 27 28 29 30 30 31 31 32 33 33 34 34 34 34 34 35 35 34 34 34 34 35 35 35 35 35 34 35 34 34 33 33 32 31
15 16 17 17 18 19 20 21 23 24 25 26 27 28 29 29 29 30 30 30 31 31 31 31 32 31 32 32 32 32 33 33 32 32 32 32 32 32 31 31 31 30 29 28
15 15 16 16 17 18 19 20 21 22 23 23 24 24 25 26 26 27 27 27 28 28 28 28 28 28 29 29 29 29 30 30 30 31 31 30 30 29 29 29 28 27 25 24
15 15 16 16 17 17 18 19 19 20 21 21 21 22 23 23 24 24 25 25 25 25 25 26 27 27 28 28 28 27 27 28 28 28 28 27 27 27 26 25 23 22 21 20
15 16 16 16 17 17 18 18 18 19 19 19 20 20 21 22 22 22 22 22 23 23 23 24 25 25 25 25 26 26 26 26 25 24 23 23 23 22 21 20 19 17 16 15
17 16 16 17 17 17 18 18 18 18 18 18 19 19 19 19 19 19 20 20 20 20 20 21 22 22 22 22 22 22 22 21 19 18 18 18 17 17 16 15 14 14 13 13
16 16 16 16 17 17 17 17 17 17 17 17 17 17 17 16 16 17 17 18 18 18 18 19 19 19 19 19 18 17 16 15 15 14 14 14 14 13 13 12 12 12 12 11
15 15 15 15 15 16 16 16 15 15 15 15 15 15 15 15 15 15 15 16 16 16 16 17 17 16 16 15 14 13 13 13 13 12 11 10 10 10 10 10 10 9 9 9
14 14 14 14 14 14 13 13 13 14 14 14 14 14 14 14 14 14 15 15 15 15 15 15 14 13 13 12 12 12 11 11 10 9 8 7 7 7 7 7 7 7 7 7
14 13 13 13 13 12 12 12 13 13 14 14 14 14 14 14 14 14 14 14 14 14 13 13 12 12 11 11 10 9 9 8 7 7 6 6 6 6 5 5 6 5 5 6

GEFSNGP_500_meanwind_228.txt.gz
Wind_Speed
32 34 34 35 36 37 38 38 39 39 38 38 38 37 37 37 36 37 37 37 37 38 40 41 43 43 44 44 45 45 44 44 44 44 44 44 44 44 45 46 46 46 46 47
30 31 32 33 35 36 36 37 37 37 37 36 37 37 37 36 36 35 36 36 36 37 38 39 40 42 43 43 44 45 45 44 44 44 44 45 45 45 46 46 46 46 46 46
29 31 32 33 33 34 35 35 36 36 36 35 36 36 36 36 36 35 36 36 36 36 37 38 39 40 41 42 43 44 45 45 45 45 45 45 46 46 46 46 46 46 46 46
26 28 31 32 31 32 33 34 35 35 35 36 36 36 36 36 36 36 36 36 36 36 37 38 39 39 40 41 42 43 44 44 45 45 45 45 45 46 46 46 46 46 46 46
26 26 28 30 31 31 32 34 35 34 34 35 35 35 35 36 36 36 36 36 37 37 37 38 38 39 39 40 41 42 43 43 44 44 44 45 45 45 45 45 46 46 46 46
27 27 27 28 30 31 31 31 33 34 34 34 34 34 34 34 35 35 36 37 37 37 38 38 38 39 40 40 41 41 42 42 43 43 44 44 45 45 45 45 45 46 46 47
26 27 27 27 28 30 31 30 31 32 33 34 34 34 33 33 33 34 34 36 37 37 37 38 39 40 40 40 41 42 42 42 42 42 43 43 44 44 45 45 45 46 47 47
25 26 27 26 27 28 29 29 30 31 31 32 33 33 33 33 33 33 33 34 35 36 37 37 38 39 40 40 41 42 42 41 42 42 43 43 43 43 44 44 45 45 46 46
24 25 25 26 27 27 28 28 28 28 28 30 31 32 32 33 33 33 33 33 33 34 35 36 37 38 39 40 40 41 41 41 41 41 41 41 41 41 42 42 43 44 44 44
23 24 25 25 26 27 28 29 29 28 28 28 29 30 31 31 32 33 33 33 34 34 34 35 36 37 38 39 40 40 40 40 40 40 40 41 41 41 41 41 41 41 41 41
21 23 24 25 26 26 28 29 30 30 29 29 29 29 29 30 31 31 32 33 34 34 35 35 35 36 37 37 38 39 39 39 40 40 40 40 40 40 40 40 40 40 39 39
21 22 23 23 25 25 26 28 30 31 30 30 30 30 30 30 30 31 31 32 33 33 34 35 35 35 35 36 36 37 38 39 39 40 40 40 40 40 40 40 40 39 39 39
19 20 21 22 24 25 25 27 28 29 30 31 31 30 30 30 31 31 31 32 32 33 34 35 35 35 35 36 36 37 38 39 39 40 40 40 40 40 40 40 40 39 38 38
18 19 20 20 22 24 25 26 27 28 28 29 30 30 29 29 29 30 31 31 32 33 33 34 35 35 36 36 37 38 39 39 39 39 40 39 39 39 39 40 39 38 38 38
18 18 19 19 19 20 22 24 25 26 27 28 28 28 28 28 29 29 30 30 31 32 33 34 34 35 35 36 37 37 37 37 38 38 38 39 39 39 39 38 37 37 37 36
16 16 17 18 18 19 21 22 23 24 26 26 27 28 29 29 29 30 30 30 31 32 33 33 33 34 34 34 34 35 35 35 36 36 36 37 37 37 36 36 36 35 35 35
13 14 15 16 17 18 20 21 23 23 24 25 27 28 29 30 30 31 31 31 32 32 33 33 33 33 33 33 34 33 34 34 34 34 34 35 35 35 34 34 34 33 33 33
11 12 13 15 16 17 18 20 21 22 23 24 25 26 27 28 29 30 30 31 31 31 32 32 32 33 33 34 33 33 33 33 33 33 33 33 33 32 32 32 31 31 31 31
12 12 13 13 14 15 17 19 20 21 22 23 23 24 25 26 27 27 28 28 29 29 30 30 31 31 32 32 32 32 32 32 32 32 32 31 30 30 29 29 28 28 28 27
13 13 13 13 14 14 15 16 18 20 21 21 22 23 24 25 25 26 26 27 27 28 28 28 28 29 29 29 29 29 29 29 29 29 29 29 28 27 27 26 26 25 25 24
14 14 14 15 15 15 15 16 17 18 19 20 21 21 23 24 24 25 25 25 26 26 26 26 27 27 26 26 27 26 26 26 26 26 26 26 25 25 25 25 24 24 23 23
15 15 15 15 15 15 15 16 16 17 18 19 20 20 21 22 23 23 24 24 24 24 24 24 24 24 23 23 23 23 23 23 23 23 23 23 23 22 22 22 22 22 21 21
14 14 14 14 14 15 15 15 16 16 17 18 18 19 19 20 20 21 21 22 22 22 22 21 21 21 20 20 20 21 21 22 22 22 22 21 21 20 20 20 20 20 19 18
14 14 14 14 14 15 15 15 15 16 16 16 16 17 17 17 17 17 17 18 18 19 19 19 19 19 18 18 19 19 19 19 19 19 19 19 18 18 17 17 16 17 16 16
14 14 14 14 14 15 15 15 15 15 15 15 15 14 14 14 15 15 16 16 16 16 17 17 17 17 17 17 18 17 17 16 16 16 15 15 14 14 14 14 14 14 13 13
14 14 14 14 15 15 15 15 15 14 14 14 14 14 14 14 14 14 14 15 15 15 16 16 17 16 16 16 15 15 14 13 13 13 13 12 12 12 12 12 12 11 11 11
14 14 14 15 15 15 15 15 15 14 14 14 13 13 13 13 14 14 14 14 14 14 14 14 14 14 13 13 12 12 11 11 11 11 10 10 9 9 9 9 8 8 8 9

GEFSNGP_500_meanwind_234.txt.gz
Wind_Speed
28 30 31 33 35 34 34 35 36 37 38 39 38 37 36 36 37 37 37 38 38 38 38 38 39 40 41 42 43 44 45 46 46 45 45 44 44 44 44 45 44 44 44 44
26 28 30 31 33 33 33 34 34 35 36 36 36 37 37 36 36 37 37 38 38 38 38 38 38 40 41 41 42 42 43 45 45 45 45 45 44 44 45 44 44 44 44 44
26 27 29 30 31 33 34 34 34 34 35 34 35 35 36 37 36 36 37 37 37 38 38 39 39 39 39 40 41 41 42 43 43 44 44 45 45 45 45 44 44 44 44 45
25 27 29 29 29 31 33 33 33 33 34 34 34 34 35 36 36 36 36 37 37 37 37 38 38 38 39 40 40 40 41 42 43 43 44 44 44 45 44 44 44 44 44 45
23 24 27 28 28 29 32 33 33 33 33 33 33 34 34 34 35 35 35 36 36 36 36 36 37 37 37 38 39 40 40 41 42 43 43 43 43 44 44 45 45 45 45 45
23 24 25 26 27 29 31 33 33 33 33 34 33 33 34 34 34 34 34 34 35 35 36 36 36 36 37 37 38 39 39 40 40 41 42 42 42 43 43 44 45 45 45 45
24 24 24 26 27 27 29 31 33 34 33 33 34 34 33 34 34 34 34 34 34 34 35 36 36 37 37 37 38 39 39 40 40 40 41 41 42 42 43 43 44 44 44 44
24 25 25 25 26 27 27 29 31 32 33 34 34 35 34 34 33 33 33 34 34 34 34 35 36 37 38 38 38 39 39 40 40 40 40 40 41 41 41 42 42 42 42 43
23 24 25 25 25 26 27 28 29 30 31 32 33 34 34 34 33 32 32 33 33 33 33 34 35 36 37 37 38 39 39 39 40 40 40 40 40 41 41 41 41 41 41 42
23 23 24 24 25 25 26 28 29 30 30 31 32 32 33 33 33 33 32 32 33 33 33 33 34 35 37 38 38 38 38 38 38 39 40 40 40 40 39 40 40 41 41 41
23 24 25 25 25 25 25 26 26 27 29 30 31 31 32 32 33 33 33 33 33 33 34 34 34 35 35 36 37 37 37 37 38 38 39 39 38 39 39 39 39 39 39 39
23 24 25 26 26 26 25 25 26 26 27 29 30 30 31 31 32 32 32 33 33 33 34 34 34 34 34 34 35 35 36 36 36 37 37 38 38 38 38 38 38 38 39 39
22 23 24 25 26 27 26 26 26 27 28 28 29 30 30 31 32 32 32 32 32 32 32 33 33 34 34 35 35 35 35 35 35 35 36 36 35 36 36 36 37 37 37 37
21 21 22 24 25 26 26 27 27 28 28 28 29 29 30 30 31 31 32 32 32 32 32 32 32 33 33 34 34 35 35 35 35 35 35 35 35 35 35 36 36 35 35 35
20 21 21 22 23 24 25 26 26 27 27 27 27 28 29 30 31 32 32 33 33 33 33 33 33 33 33 34 34 34 34 34 34 34 35 35 35 35 35 36 35 35 35 34
19 20 20 20 21 21 22 24 25 25 25 25 26 27 28 30 31 31 32 33 33 33 33 33 33 33 33 33 33 33 33 33 34 34 35 35 35 35 35 35 35 36 35 34
15 16 17 18 18 19 19 20 22 23 25 25 25 26 27 27 28 29 30 31 32 32 32 32 32 32 32 32 32 32 32 32 33 33 34 34 34 34 34 34 34 34 33 32
13 14 15 16 17 17 18 18 19 20 21 23 24 24 25 26 26 27 27 28 29 29 30 31 32 32 32 32 32 32 32 32 32 32 32 32 33 33 33 32 32 31 31 30
13 13 14 14 16 16 17 17 17 17 18 19 20 21 22 23 24 25 25 26 26 27 28 29 29 30 30 31 31 32 32 32 31 31 31 31 30 30 30 30 30 29 28 28
13 13 13 14 15 16 16 17 17 18 19 19 20 21 22 23 23 24 24 24 25 26 26 26 26 27 27 27 28 28 29 29 29 29 29 29 29 28 27 27 26 25 25 25
13 14 14 14 15 15 16 17 17 18 19 20 21 22 23 24 24 24 24 24 25 25 25 25 25 25 25 25 25 25 26 26 27 27 28 27 26 25 25 24 23 22 22 22
14 15 15 15 15 16 17 17 18 19 20 20 21 22 22 23 23 23 23 24 24 24 24 24 24 25 25 24 24 24 24 24 24 24 24 24 23 23 22 22 22 21 21 20
16 16 16 17 17 18 18 18 19 19 19 20 21 21 21 21 21 22 22 23 23 23 23 23 24 24 24 24 24 23 23 23 23 22 22 21 21 20 20 20 20 21 20 20
17 17 18 18 18 18 18 19 19 19 19 19 19 20 20 20 21 21 22 22 22 22 23 23 23 23 23 22 22 22 22 21 21 20 20 19 19 19 19 18 18 19 19 19
17 17 18 18 18 18 19 19 19 19 19 19 19 19 19 19 19 20 20 21 21 21 21 21 21 21 21 21 21 20 20 20 19 19 19 18 18 17 17 17 17 17 17 17
18 18 18 18 18 18 18 19 19 18 18 18 18 19 19 19 19 19 19 19 19 19 19 19 19 19 19 18 18 18 17 17 17 17 16 16 15 15 15 15 15 14 14 14
18 18 18 18 18 18 18 18 18 18 18 17 17 18 18 18 18 18 18 18 17 17 17 17 17 16 16 16 16 16 16 15 14 14 13 13 13 13 13 13 12 12 12 11

GEFSNGP_500_meanwind_240.txt.gz
Wind_Speed
24 26 28 30 31 30 30 31 32 32 33 35 37 37 36 34 35 36 38 39 38 38 38 38 39 39 39 39 40 41 41 41 42 42 43 43 44 44 44 44 44 44 44 44
24 27 28 28 29 29 29 31 32 31 31 32 33 35 36 36 36 37 37 38 38 39 38 39 39 39 39 39 40 40 41 41 41 41 42 42 42 43 44 45 45 45 45 45
23 27 29 29 27 26 27 30 31 31 30 31 32 33 34 35 37 37 37 37 38 38 37 37 38 39 39 39 39 39 40 40 41 41 41 41 42 43 43 44 44 45 45 44
21 25 28 29 29 27 27 29 29 30 30 31 33 33 33 34 35 36 37 37 37 37 37 37 37 38 38 39 40 39 39 39 40 40 40 41 41 42 43 43 43 43 44 43
20 24 25 27 27 27 27 27 29 30 29 31 32 33 33 33 33 34 34 35 36 36 37 37 38 37 37 38 39 39 38 39 39 39 40 40 41 41 42 42 42 42 42 42
21 23 24 24 26 27 27 27 27 29 30 30 31 32 31 32 32 32 33 34 35 35 36 37 37 37 37 38 38 38 38 38 39 39 39 40 41 41 41 41 42 42 42 42
19 20 22 24 26 27 28 27 27 28 29 30 31 31 31 32 33 34 34 34 34 34 35 36 37 37 38 38 38 37 38 38 39 39 40 40 41 40 40 40 41 41 40 40
18 19 20 22 24 25 26 27 28 29 29 30 31 31 31 31 32 33 34 34 34 34 34 34 35 36 37 37 37 37 37 38 39 39 39 40 40 39 39 39 39 39 39 40
20 20 20 21 22 23 25 26 27 29 30 30 31 31 31 31 31 32 33 34 34 34 34 34 34 33 35 36 37 38 38 38 38 38 38 39 39 39 38 38 38 39 39 40
20 20 21 22 22 22 23 24 26 28 28 30 31 31 32 31 31 31 32 33 33 34 34 34 34 33 34 34 35 37 38 38 38 38 39 39 39 38 38 38 39 39 39 39
21 22 23 23 23 23 23 24 24 25 27 28 30 30 31 32 32 32 33 33 33 33 33 34 34 34 34 34 34 34 35 36 37 37 37 37 37 37 37 37 37 38 38 38
21 23 23 23 24 24 24 24 25 25 25 26 28 29 30 31 32 32 32 32 32 33 33 34 34 34 34 34 34 34 34 34 35 36 36 36 36 36 36 37 37 37 37 37
19 20 22 23 23 23 24 24 25 25 24 26 28 29 29 30 30 31 32 32 33 33 34 34 34 34 34 34 34 34 34 34 34 35 36 36 36 36 36 37 37 37 37 37
16 17 19 20 22 23 23 23 24 24 25 26 27 28 28 29 30 31 31 31 31 32 32 33 33 33 33 33 33 34 34 34 34 34 35 35 35 35 35 35 35 35 35 35
15 16 17 19 21 22 22 22 22 22 23 25 26 27 28 28 29 29 30 30 31 31 32 32 33 33 33 32 32 33 33 33 34 33 33 33 33 33 33 33 33 33 32 32
14 14 15 16 18 19 20 21 21 21 22 23 25 26 27 28 28 29 29 30 31 31 32 32 32 33 33 33 33 32 33 33 33 33 32 31 31 31 31 32 32 32 31 31
13 14 14 14 16 17 19 20 22 22 22 22 23 24 25 26 27 28 29 29 29 30 30 30 30 31 32 32 33 33 32 32 32 31 31 31 31 30 31 31 31 30 30 29
13 13 13 14 14 15 17 19 20 21 21 22 23 23 23 24 25 26 27 28 28 28 29 29 29 29 30 30 31 31 31 30 30 30 30 31 31 31 31 30 30 29 29 29
13 13 13 13 13 14 14 16 17 19 20 21 22 22 22 23 23 24 25 25 26 27 28 28 28 28 28 28 28 28 29 29 29 29 28 28 29 30 30 30 30 29 28 28
13 13 13 13 14 14 14 14 15 16 18 19 20 21 22 23 24 23 24 24 25 26 27 28 28 28 28 28 28 28 28 28 28 27 27 27 27 28 28 28 28 28 28 27
13 13 13 13 14 14 14 15 15 15 16 17 18 19 20 22 23 23 22 23 23 24 26 26 26 26 25 26 26 26 26 27 26 26 26 26 26 26 26 25 25 25 25 25
14 14 14 14 14 14 15 15 16 16 16 16 17 18 18 19 21 21 22 22 22 23 23 23 23 23 23 23 24 24 24 25 25 25 24 25 25 25 24 24 23 23 22 22
15 15 15 15 15 15 15 16 16 17 17 17 17 17 18 18 19 20 21 21 21 22 22 23 23 23 23 23 23 23 23 23 23 23 23 23 22 22 22 22 21 21 20 19
16 16 16 16 16 16 16 16 17 17 17 18 18 18 18 19 19 19 19 20 20 21 21 22 22 22 22 22 22 22 22 22 22 22 21 20 20 19 19 19 18 18 18 18
17 17 17 17 17 16 16 16 17 17 17 17 17 18 18 19 19 19 19 19 19 19 20 20 21 21 21 21 21 21 21 21 20 20 19 19 18 18 18 17 16 16 16 16
17 17 18 17 17 17 17 16 16 16 16 16 16 17 18 18 18 18 19 19 19 19 19 19 19 19 19 19 19 19 19 19 19 19 18 18 17 16 16 15 15 14 14 14
17 17 17 17 17 17 16 16 16 16 16 16 16 16 17 17 17 17 17 18 18 18 19 19 18 18 18 18 18 18 18 18 18 18 17 17 16 16 15 15 14 13 12 12